N4ASP-13 Weather Reports


time (UTC)temp
C
wind
direction
speed
KPH
gust
KPH
rain 1hr
cm
rain 24hr
cm
rain mn
cm
humidity
%
barometer
mb
20260506152504 16 150 4.8 16.1 0.00 0.00 0.00 86 1014.0
20260506152404 16 146 4.8 16.1 0.00 0.00 0.00 86 1014.1
20260506152305 16 147 4.8 16.1 0.00 0.00 0.00 87 1014.2
20260506152203 16 162 4.8 16.1 0.00 0.00 0.00 87 1014.3
20260506152104 16 232 4.8 16.1 0.00 0.00 0.00 87 1014.2
20260506152004 16 168 3.2 16.1 0.00 0.00 0.00 86 1014.3
20260506151903 16 172 3.2 16.1 0.00 0.00 0.00 86 1014.3
20260506151805 16 173 3.2 16.1 0.00 0.00 0.00 86 1014.4
20260506151704 16 150 1.6 11.3 0.00 0.00 0.00 86 1014.2
20260506151600 16 298 1.6 9.7 0.00 0.00 0.00 87 1014.3
20260506151500 16 173 1.6 8.0 0.00 0.00 0.00 87 1014.3
20260506151359 16 186 1.6 8.0 0.00 0.00 0.00 87 1014.2
20260506151301 16 197 1.6 8.0 0.00 0.00 0.00 87 1014.1
20260506151200 16 155 1.6 9.7 0.00 0.00 0.00 86 1014.2
20260506151059 16 155 1.6 9.7 0.00 0.00 0.00 86 1014.0
20260506151000 16 155 3.2 9.7 0.00 0.00 0.00 86 1013.7
20260506150900 16 155 3.2 9.7 0.00 0.00 0.00 86 1013.5
20260506150759 16 148 3.2 9.7 0.00 0.00 0.00 86 1013.5
20260506150701 16 140 3.2 11.3 0.00 0.00 0.00 86 1013.3
20260506150600 16 140 3.2 11.3 0.00 0.00 0.00 86 1013.4
20260506150500 16 140 4.8 11.3 0.00 0.00 0.00 86 1013.4
20260506150401 16 140 4.8 11.3 0.00 0.00 0.00 86 1013.3
20260506150303 16 138 4.8 11.3 0.00 0.00 0.00 86 1013.3
20260506150200 16 153 4.8 11.3 0.00 0.00 0.00 86 1013.3
20260506150100 16 154 4.8 11.3 0.00 0.00 0.00 86 1013.3
20260506150001 16 153 4.8 11.3 0.00 0.00 0.00 87 1013.3
20260506145901 16 136 4.8 11.3 0.00 0.00 0.00 87 1013.3
20260506145759 16 174 4.8 11.3 0.00 0.00 0.00 87 1013.4
20260506145659 16 154 4.8 11.3 0.00 0.00 0.00 87 1013.4
20260506145600 16 178 4.8 11.3 0.00 0.00 0.00 87 1013.3
20260506145501 16 144 3.2 9.7 0.00 0.00 0.00 87 1013.3
20260506145400 16 136 3.2 8.0 0.00 0.00 0.00 87 1013.3
20260506145259 15 134 3.2 8.0 0.00 0.00 0.00 87 1013.2
20260506145159 15 134 3.2 8.0 0.00 0.00 0.00 88 1013.2
20260506145100 15 134 3.2 8.0 0.00 0.00 0.00 87 1013.2
20260506144952 15 129 3.2 8.0 0.00 0.00 0.00 87 1013.3
20260506144852 15 137 3.2 8.0 0.00 0.00 0.00 87 1013.3
20260506144752 15 144 3.2 8.0 0.00 0.00 0.00 87 1013.4
20260506144651 15 173 3.2 8.0 0.00 0.00 0.00 87 1013.4
20260506144553 15 122 3.2 6.4 0.00 0.00 0.00 87 1013.4
20260506144453 15 122 3.2 8.0 0.00 0.00 0.00 87 1013.4
20260506144351 15 122 3.2 8.0 0.00 0.00 0.00 87 1013.4
20260506144252 15 115 3.2 8.0 0.00 0.00 0.00 87 1013.4
20260506144151 15 120 3.2 8.0 0.00 0.00 0.00 87 1013.5
20260506144052 15 118 3.2 8.0 0.00 0.00 0.00 87 1013.5
20260506143951 15 119 3.2 8.0 0.00 0.00 0.00 86 1013.4
20260506143852 15 138 1.6 8.0 0.00 0.00 0.00 86 1013.4
20260506143751 15 138 1.6 8.0 0.00 0.00 0.00 86 1013.5
20260506143652 15 131 3.2 8.0 0.00 0.00 0.00 86 1013.7
20260506143552 15 130 3.2 8.0 0.00 0.00 0.00 86 1013.5
20260506143452 15 144 3.2 8.0 0.00 0.00 0.00 86 1013.7
20260506143352 15 144 3.2 8.0 0.00 0.00 0.00 86 1013.5
20260506143252 15 101 3.2 8.0 0.00 0.00 0.00 85 1013.5
20260506143151 15 99 3.2 8.0 0.00 0.00 0.00 85 1013.4
20260506143051 15 88 3.2 8.0 0.00 0.00 0.00 85 1013.5
20260506142951 15 14 3.2 8.0 0.00 0.00 0.00 85 1013.5
20260506142853 15 175 4.8 8.0 0.00 0.00 0.00 85 1013.4
20260506142751 15 175 4.8 9.7 0.00 0.00 0.00 85 1013.5
20260506142652 15 156 4.8 9.7 0.00 0.00 0.00 85 1013.4
20260506142551 15 131 4.8 11.3 0.00 0.00 0.00 85 1013.4
20260506142452 15 132 4.8 11.3 0.00 0.00 0.00 85 1013.4
20260506142352 15 144 4.8 11.3 0.00 0.00 0.00 85 1013.5
20260506142251 15 109 4.8 11.3 0.00 0.00 0.00 85 1013.5
20260506142151 15 138 4.8 11.3 0.00 0.00 0.00 85 1013.5
20260506142053 15 136 4.8 11.3 0.00 0.00 0.00 86 1013.5
20260506141952 15 164 4.8 11.3 0.00 0.00 0.00 85 1013.4
20260506141851 15 112 3.2 11.3 0.00 0.00 0.00 86 1013.5
20260506141752 15 142 3.2 11.3 0.00 0.00 0.00 86 1013.4
20260506141647 15 142 3.2 11.3 0.00 0.00 0.00 86 1013.5
20260506141547 15 130 3.2 11.3 0.00 0.00 0.00 86 1013.4
20260506141447 15 123 3.2 6.4 0.00 0.00 0.00 86 1013.4
20260506141347 15 192 3.2 6.4 0.00 0.00 0.00 86 1013.4
20260506141247 15 194 1.6 6.4 0.00 0.00 0.00 86 1013.4
20260506141149 15 146 1.6 6.4 0.00 0.00 0.00 86 1013.3
20260506141047 15 94 1.6 6.4 0.00 0.00 0.00 86 1013.3
20260506140948 15 162 1.6 6.4 0.00 0.00 0.00 86 1013.4
20260506140847 15 162 1.6 6.4 0.00 0.00 0.00 86 1013.4
20260506140747 15 163 1.6 6.4 0.00 0.00 0.00 86 1013.3
20260506140647 15 163 1.6 6.4 0.00 0.00 0.00 86 1013.3
20260506140547 15 165 1.6 6.4 0.00 0.00 0.00 86 1013.2
20260506140447 15 85 1.6 6.4 0.00 0.00 0.00 86 1013.2
20260506140347 15 58 1.6 4.8 0.00 0.00 0.00 86 1013.4
20260506140248 15 58 1.6 4.8 0.00 0.00 0.00 86 1013.3
20260506140147 15 58 1.6 4.8 0.00 0.00 0.00 86 1013.3
20260506140047 15 58 1.6 4.8 0.00 0.00 0.00 86 1013.3
20260506135947 15 58 1.6 4.8 0.00 0.00 0.00 86 1013.3
20260506135847 15 58 1.6 4.8 0.00 0.00 0.00 86 1013.4
20260506135747 15 0 1.6 3.2 0.00 0.00 0.00 86 1013.5
20260506135647 15 0 1.6 4.8 0.00 0.00 0.00 86 1013.4
20260506135548 15 0 1.6 4.8 0.00 0.00 0.00 86 1013.4
20260506135447 15 355 1.6 4.8 0.00 0.00 0.00 86 1013.4
20260506135347 15 355 1.6 6.4 0.00 0.00 0.00 86 1013.5
20260506135248 15 355 1.6 6.4 0.00 0.00 0.00 86 1013.5
20260506135149 15 346 1.6 6.4 0.00 0.00 0.00 85 1013.7
20260506135048 15 346 1.6 6.4 0.00 0.00 0.00 85 1013.7
20260506134947 15 346 1.6 6.4 0.00 0.00 0.00 85 1013.7
20260506134848 15 346 1.6 6.4 0.00 0.00 0.00 85 1013.8
20260506134748 15 346 1.6 6.4 0.00 0.00 0.00 86 1013.7
20260506134647 15 346 1.6 8.0 0.00 0.00 0.00 86 1013.7
20260506134548 15 303 1.6 8.0 0.00 0.00 0.00 86 1013.7
20260506134448 15 240 1.6 8.0 0.00 0.00 0.00 86 1013.5
20260506134343 15 21 3.2 8.0 0.00 0.00 0.00 86 1013.4
20260506134244 15 94 3.2 8.0 0.00 0.00 0.00 85 1013.4
20260506134143 15 94 3.2 8.0 0.00 0.00 0.00 85 1013.5
20260506134045 15 136 3.2 8.0 0.00 0.00 0.00 85 1013.5
20260506133944 15 137 3.2 8.0 0.00 0.00 0.00 85 1013.4
20260506133844 15 137 3.2 8.0 0.00 0.00 0.00 85 1013.4
20260506133743 15 137 3.2 8.0 0.00 0.00 0.00 85 1013.3
20260506133643 15 145 3.2 8.0 0.00 0.00 0.00 85 1013.2
20260506133543 15 138 3.2 8.0 0.00 0.00 0.00 85 1013.3
20260506133444 15 132 3.2 8.0 0.00 0.00 0.00 85 1013.2
20260506133343 15 133 3.2 8.0 0.00 0.00 0.00 85 1013.3
20260506133244 15 129 3.2 8.0 0.00 0.00 0.00 85 1013.3
20260506133137 15 127 3.2 8.0 0.00 0.00 0.00 84 1013.4
20260506133036 15 126 3.2 8.0 0.00 0.00 0.00 84 1013.3
20260506132934 15 208 3.2 8.0 0.00 0.00 0.00 85 1013.4
20260506132835 15 153 3.2 8.0 0.00 0.00 0.00 85 1013.2
20260506132733 15 140 3.2 9.7 0.00 0.00 0.00 85 1013.3
20260506132630 15 115 3.2 9.7 0.00 0.00 0.00 85 1013.3
20260506132527 15 151 3.2 9.7 0.00 0.00 0.00 85 1013.2
20260506132427 15 160 3.2 9.7 0.00 0.00 0.00 85 1013.3
20260506132329 15 160 3.2 9.7 0.00 0.00 0.00 85 1013.1
20260506132229 15 172 3.2 9.7 0.00 0.00 0.00 85 1013.2
20260506132123 15 178 3.2 9.7 0.00 0.00 0.00 85 1013.2
20260506132023 15 130 3.2 9.7 0.00 0.00 0.00 85 1013.2
20260506131922 15 130 3.2 9.7 0.00 0.00 0.00 85 1013.3
20260506131821 15 146 3.2 9.7 0.00 0.00 0.00 85 1013.3
20260506131722 15 165 1.6 9.7 0.00 0.00 0.00 85 1013.3
20260506131613 15 178 3.2 9.7 0.00 0.00 0.00 85 1013.4
20260506131511 15 176 3.2 9.7 0.00 0.00 0.00 85 1013.3
20260506131412 15 178 3.2 9.7 0.00 0.00 0.00 85 1013.4
20260506131312 15 179 3.2 9.7 0.00 0.00 0.00 85 1013.5
20260506131211 15 181 3.2 9.7 0.00 0.00 0.00 85 1013.5
20260506131105 15 271 3.2 9.7 0.00 0.00 0.00 85 1013.3
20260506131006 15 138 3.2 9.7 0.00 0.00 0.00 85 1013.4
20260506130906 15 70 3.2 9.7 0.00 0.00 0.00 86 1013.4
20260506130807 15 272 3.2 9.7 0.00 0.00 0.00 86 1013.3
20260506130705 15 271 3.2 9.7 0.00 0.00 0.00 86 1013.3
20260506130603 15 142 3.2 9.7 0.00 0.00 0.00 86 1013.3
20260506130459 15 142 3.2 9.7 0.00 0.00 0.00 86 1013.4
20260506130400 15 140 3.2 9.7 0.00 0.00 0.00 86 1013.3
20260506130259 15 136 4.8 11.3 0.00 0.00 0.00 86 1013.4
20260506130200 15 165 4.8 11.3 0.00 0.00 0.00 86 1013.4
20260506130053 15 165 4.8 11.3 0.00 0.00 0.00 86 1013.4
20260506125949 15 127 4.8 11.3 0.00 0.00 0.00 86 1013.7
20260506125850 15 298 4.8 14.5 0.00 0.00 0.00 86 1013.7
20260506125749 15 294 4.8 14.5 0.00 0.00 0.00 86 1013.7
20260506125649 15 170 6.4 14.5 0.00 0.00 0.00 86 1013.4
20260506125543 15 171 6.4 14.5 0.00 0.00 0.00 87 1013.4
20260506125442 15 138 6.4 14.5 0.00 0.00 0.00 87 1013.4
20260506125343 15 175 4.8 14.5 0.00 0.00 0.00 87 1013.4
20260506125244 15 123 4.8 14.5 0.00 0.00 0.00 87 1013.4
20260506125143 15 161 4.8 14.5 0.00 0.00 0.00 87 1013.4
20260506125040 15 166 4.8 14.5 0.00 0.00 0.00 87 1013.4
20260506124937 15 158 4.8 14.5 0.00 0.00 0.00 87 1013.3
20260506124839 15 120 3.2 12.9 0.00 0.00 0.00 87 1013.4
20260506124736 14 157 3.2 11.3 0.00 0.00 0.00 88 1013.4
20260506124637 14 159 3.2 11.3 0.00 0.00 0.00 88 1013.4
20260506124530 14 146 3.2 11.3 0.00 0.00 0.00 88 1013.4
20260506124427 14 179 3.2 11.3 0.00 0.00 0.00 88 1013.5
20260506124329 14 148 3.2 9.7 0.00 0.00 0.00 88 1013.4
20260506124228 14 126 3.2 9.7 0.00 0.00 0.00 88 1013.3
20260506124128 14 144 3.2 9.7 0.00 0.00 0.00 88 1013.5
20260506124022 14 145 3.2 12.9 0.00 0.00 0.00 88 1013.5
20260506123922 14 128 3.2 12.9 0.00 0.00 0.00 88 1013.3
20260506123822 14 96 4.8 12.9 0.00 0.00 0.00 88 1013.2
20260506123722 14 121 4.8 12.9 0.00 0.00 0.00 88 1013.3
20260506123622 14 87 3.2 12.9 0.00 0.00 0.00 88 1013.2
20260506123521 14 157 4.8 12.9 0.00 0.00 0.00 88 1013.2
20260506123420 14 122 4.8 12.9 0.00 0.00 0.00 88 1013.2
20260506123319 14 122 4.8 12.9 0.00 0.00 0.00 88 1013.2
20260506123219 14 122 4.8 12.9 0.00 0.00 0.00 88 1013.1
20260506123116 14 121 4.8 12.9 0.00 0.00 0.00 88 1013.0
20260506123006 14 155 4.8 12.9 0.00 0.00 0.00 89 1013.0
20260506122906 14 147 4.8 12.9 0.00 0.00 0.00 89 1012.9
20260506122807 13 180 4.8 12.9 0.00 0.00 0.00 89 1012.9
20260506122705 13 144 4.8 12.9 0.00 0.00 0.00 89 1013.0
20260506122605 13 141 4.8 16.1 0.00 0.00 0.00 89 1013.1
20260506122500 13 140 4.8 16.1 0.00 0.00 0.00 89 1013.1
20260506122359 13 177 4.8 16.1 0.00 0.00 0.00 89 1013.1
20260506122301 13 148 4.8 16.1 0.00 0.00 0.00 89 1013.2
20260506122159 13 178 4.8 16.1 0.00 0.00 0.00 89 1013.1
20260506122059 13 154 6.4 16.1 0.00 0.00 0.00 89 1013.1
20260506121959 13 159 6.4 16.1 0.00 0.00 0.00 89 1013.1
20260506121859 13 150 6.4 16.1 0.00 0.00 0.00 89 1013.1
20260506121758 13 153 6.4 16.1 0.00 0.00 0.00 89 1013.0
20260506121654 13 163 6.4 16.1 0.00 0.00 0.00 89 1013.0
20260506121553 13 182 6.4 14.5 0.00 0.00 0.00 89 1012.9
20260506121449 13 157 6.4 14.5 0.00 0.00 0.00 89 1012.8
20260506121348 13 119 6.4 14.5 0.00 0.00 0.00 89 1012.8
20260506121248 13 161 6.4 14.5 0.00 0.00 0.00 89 1012.9
20260506121147 13 150 6.4 12.9 0.00 0.00 0.00 89 1012.9
20260506121046 13 150 6.4 12.9 0.00 0.00 0.00 89 1013.0
20260506120948 13 158 6.4 12.9 0.00 0.00 0.00 89 1013.0
20260506120846 13 121 6.4 12.9 0.00 0.00 0.00 89 1012.9
20260506120745 13 132 6.4 12.9 0.00 0.00 0.00 89 1013.1
20260506120645 13 167 6.4 12.9 0.00 0.00 0.00 89 1013.0
20260506120546 13 142 6.4 12.9 0.00 0.00 0.00 89 1013.1
20260506120445 13 170 6.4 12.9 0.00 0.00 0.00 89 1013.3
20260506120344 13 137 6.4 12.9 0.00 0.00 0.00 89 1013.2
20260506120246 13 144 6.4 12.9 0.00 0.00 0.00 89 1013.3
20260506120145 13 139 8.0 12.9 0.00 0.00 0.00 89 1013.2
20260506120045 13 94 8.0 12.9 0.00 0.00 0.00 89 1013.2
20260506115946 13 142 8.0 14.5 0.00 0.00 0.00 89 1013.2
20260506115845 13 144 8.0 14.5 0.00 0.00 0.00 89 1013.2
20260506115747 13 138 8.0 14.5 0.00 0.00 0.00 89 1013.2
20260506115645 13 126 8.0 14.5 0.00 0.00 0.00 89 1013.2
20260506115546 13 145 6.4 14.5 0.00 0.00 0.00 89 1013.1
20260506115446 13 134 6.4 14.5 0.00 0.00 0.00 89 1013.1
20260506115343 13 174 6.4 14.5 0.00 0.00 0.00 89 1013.1
20260506115243 13 141 6.4 16.1 0.00 0.00 0.00 89 1013.1
20260506115144 13 175 6.4 16.1 0.00 0.00 0.00 89 1013.2
20260506115043 13 128 6.4 16.1 0.00 0.00 0.00 89 1013.2
20260506114943 13 139 4.8 16.1 0.00 0.00 0.00 89 1013.4
20260506114843 13 147 6.4 16.1 0.00 0.00 0.00 89 1013.4
20260506114744 13 145 6.4 16.1 0.00 0.00 0.00 89 1013.4
20260506114644 13 141 6.4 16.1 0.00 0.00 0.00 89 1013.5
20260506114543 13 157 6.4 16.1 0.00 0.00 0.00 89 1013.4
20260506114443 13 183 6.4 16.1 0.00 0.00 0.00 89 1013.4
20260506114342 13 144 6.4 16.1 0.00 0.00 0.00 89 1013.5
20260506114241 13 126 8.0 14.5 0.00 0.00 0.00 89 1013.7
20260506114142 13 175 8.0 14.5 0.00 0.00 0.00 89 1013.5
20260506114036 13 199 8.0 14.5 0.00 0.00 0.00 89 1013.5
20260506113936 13 184 8.0 14.5 0.00 0.00 0.00 89 1013.5
20260506113836 13 181 8.0 14.5 0.00 0.00 0.00 89 1013.4
20260506113735 13 181 8.0 14.5 0.00 0.00 0.00 89 1013.4
20260506113635 13 183 8.0 14.5 0.00 0.00 0.00 89 1013.3
20260506113530 13 159 8.0 16.1 0.00 0.00 0.00 89 1013.2
20260506113429 13 121 8.0 16.1 0.00 0.00 0.00 89 1013.3
20260506113329 13 160 8.0 16.1 0.00 0.00 0.00 89 1013.4
20260506113228 13 150 8.0 16.1 0.00 0.00 0.00 89 1013.3
20260506113130 13 169 8.0 16.1 0.00 0.00 0.00 89 1013.3
20260506113026 13 198 8.0 16.1 0.00 0.00 0.00 89 1013.3
20260506112922 13 159 8.0 17.7 0.00 0.00 0.00 89 1013.2
20260506112823 13 151 8.0 19.3 0.00 0.00 0.00 89 1013.2
20260506112723 13 148 8.0 19.3 0.00 0.00 0.00 89 1013.1
20260506112622 13 163 8.0 19.3 0.00 0.00 0.00 89 1013.1
20260506112523 13 179 8.0 19.3 0.00 0.00 0.00 89 1013.1
20260506112424 13 150 8.0 19.3 0.00 0.00 0.00 89 1013.1
20260506112323 13 150 8.0 19.3 0.00 0.00 0.00 89 1013.0
20260506112222 13 145 8.0 19.3 0.00 0.00 0.00 89 1012.9
20260506112123 13 148 8.0 19.3 0.00 0.00 0.00 89 1013.0
20260506112025 13 141 8.0 19.3 0.00 0.00 0.00 89 1013.0
20260506111923 13 146 6.4 19.3 0.00 0.00 0.00 89 1013.0
20260506111823 13 141 6.4 16.1 0.00 0.00 0.00 89 1012.9
20260506111722 13 130 6.4 16.1 0.00 0.00 0.00 89 1013.0
20260506111622 13 132 6.4 16.1 0.00 0.00 0.00 89 1013.0
20260506111521 13 144 6.4 16.1 0.00 0.00 0.00 89 1013.0
20260506111422 13 140 6.4 16.1 0.00 0.00 0.00 88 1013.0
20260506111322 13 135 6.4 16.1 0.00 0.00 0.00 88 1013.0
20260506111221 13 142 6.4 16.1 0.00 0.00 0.00 88 1013.0
20260506111121 13 175 6.4 16.1 0.00 0.00 0.00 88 1013.0
20260506111022 13 183 6.4 12.9 0.00 0.00 0.00 88 1013.0
20260506110922 13 169 6.4 12.9 0.00 0.00 0.00 88 1013.0
20260506110818 13 178 6.4 14.5 0.00 0.00 0.00 88 1013.0
20260506110717 13 175 6.4 14.5 0.00 0.00 0.00 88 1013.0
20260506110617 13 154 6.4 14.5 0.00 0.00 0.00 88 1013.0
20260506110516 13 148 6.4 25.7 0.00 0.00 0.00 88 1012.9
20260506110416 13 142 6.4 25.7 0.00 0.00 0.00 88 1012.8
20260506110317 13 161 6.4 25.7 0.00 0.00 0.00 88 1012.9
20260506110216 13 138 8.0 25.7 0.00 0.00 0.00 88 1012.9
20260506110116 13 138 8.0 25.7 0.00 0.00 0.00 88 1012.8
20260506110017 13 184 8.0 25.7 0.00 0.00 0.00 88 1012.8
20260506105918 13 105 6.4 25.7 0.00 0.00 0.00 88 1012.8
20260506105818 13 163 6.4 25.7 0.00 0.00 0.00 88 1012.8
20260506105717 13 138 6.4 25.7 0.00 0.00 0.00 88 1012.7
20260506105612 13 111 6.4 25.7 0.00 0.00 0.00 88 1012.7
20260506105510 13 133 6.4 16.1 0.00 0.00 0.00 89 1012.8
20260506105413 13 140 6.4 14.5 0.00 0.00 0.00 89 1012.8
20260506105311 13 134 4.8 14.5 0.00 0.00 0.00 89 1012.8
20260506105212 13 114 4.8 14.5 0.00 0.00 0.00 89 1012.8
20260506105107 13 139 4.8 14.5 0.00 0.00 0.00 89 1012.8
20260506105006 13 159 4.8 14.5 0.00 0.00 0.00 89 1012.8
20260506104906 13 159 4.8 14.5 0.00 0.00 0.00 89 1012.8
20260506104806 13 110 4.8 16.1 0.00 0.00 0.00 89 1012.8
20260506104706 13 115 4.8 16.1 0.00 0.00 0.00 89 1012.8
20260506104600 13 137 4.8 16.1 0.00 0.00 0.00 89 1012.7
20260506104500 13 137 4.8 16.1 0.00 0.00 0.00 89 1012.9
20260506104359 13 159 4.8 16.1 0.00 0.00 0.00 89 1012.8
20260506104300 13 161 4.8 16.1 0.00 0.00 0.00 89 1012.8
20260506104159 13 142 4.8 16.1 0.00 0.00 0.00 89 1012.9
20260506104058 13 134 4.8 16.1 0.00 0.00 0.00 89 1012.9
20260506104000 13 144 3.2 16.1 0.00 0.00 0.00 89 1012.9
20260506103859 13 180 3.2 16.1 0.00 0.00 0.00 89 1013.0
20260506103800 13 87 4.8 11.3 0.00 0.00 0.00 89 1012.9
20260506103559 13 140 3.2 11.3 0.00 0.00 0.00 89 1012.8
20260506103457 13 189 3.2 11.3 0.00 0.00 0.00 89 1012.9
20260506103356 13 130 3.2 11.3 0.00 0.00 0.00 89 1012.7
20260506103159 12 133 3.2 11.3 0.00 0.00 0.00 89 1012.8
20260506103057 13 146 4.8 11.3 0.00 0.00 0.00 89 1012.8
20260506102958 12 147 4.8 14.5 0.00 0.00 0.00 89 1012.8
20260506102846 12 149 4.8 16.1 0.00 0.00 0.00 89 1012.8
20260506102748 12 180 4.8 16.1 0.00 0.00 0.00 89 1012.7
20260506102648 12 187 4.8 16.1 0.00 0.00 0.00 89 1012.8
20260506102547 12 199 4.8 16.1 0.00 0.00 0.00 89 1012.7
20260506102448 12 200 6.4 16.1 0.00 0.00 0.00 89 1012.6
20260506102342 12 178 6.4 16.1 0.00 0.00 0.00 89 1012.6
20260506102242 12 148 6.4 16.1 0.00 0.00 0.00 89 1012.5
20260506102142 12 148 6.4 16.1 0.00 0.00 0.00 89 1012.5
20260506102042 12 129 6.4 16.1 0.00 0.00 0.00 89 1012.5
20260506101942 12 127 4.8 16.1 0.00 0.00 0.00 89 1012.5
20260506101839 12 153 4.8 16.1 0.00 0.00 0.00 89 1012.5
20260506101740 12 171 6.4 16.1 0.00 0.00 0.00 89 1012.6
20260506101639 12 139 6.4 16.1 0.00 0.00 0.00 89 1012.5
20260506101538 12 163 6.4 16.1 0.00 0.00 0.00 89 1012.6
20260506101436 12 157 8.0 16.1 0.00 0.00 0.00 89 1012.6
20260506101328 12 116 6.4 20.9 0.00 0.00 0.00 89 1012.5
20260506101229 12 142 8.0 20.9 0.00 0.00 0.00 89 1012.5
20260506101128 12 145 8.0 20.9 0.00 0.00 0.00 89 1012.5
20260506101028 13 129 8.0 20.9 0.00 0.00 0.00 89 1012.6
20260506100926 13 143 8.0 20.9 0.00 0.00 0.00 89 1012.5
20260506100819 12 167 8.0 20.9 0.00 0.00 0.00 89 1012.4
20260506100720 12 124 8.0 20.9 0.00 0.00 0.00 89 1012.4
20260506100620 13 148 8.0 20.9 0.00 0.00 0.00 89 1012.5
20260506100519 13 121 8.0 20.9 0.00 0.00 0.00 89 1012.5
20260506100420 13 128 8.0 19.3 0.00 0.00 0.00 89 1012.5
20260506100315 13 152 8.0 19.3 0.00 0.00 0.00 89 1012.6
20260506100215 13 173 8.0 19.3 0.00 0.00 0.00 89 1012.5
20260506100115 13 163 8.0 19.3 0.00 0.00 0.00 89 1012.5
20260506100017 13 163 8.0 19.3 0.00 0.00 0.00 89 1012.4
20260506095913 13 174 8.0 19.3 0.00 0.00 0.00 89 1012.4
20260506095803 13 144 8.0 19.3 0.00 0.00 0.00 89 1012.3
20260506095704 13 115 8.0 19.3 0.00 0.00 0.00 89 1012.4
20260506095604 13 225 8.0 19.3 0.00 0.00 0.00 89 1012.4
20260506095503 13 148 8.0 19.3 0.00 0.00 0.00 89 1012.4
20260506095403 13 124 8.0 19.3 0.00 0.00 0.00 89 1012.4
20260506095257 13 136 8.0 19.3 0.00 0.00 0.00 89 1012.4
20260506095157 13 131 8.0 19.3 0.00 0.00 0.00 89 1012.4
20260506095058 13 139 8.0 17.7 0.00 0.00 0.00 88 1012.4
20260506094957 13 159 8.0 17.7 0.00 0.00 0.00 88 1012.5
20260506094858 13 147 8.0 17.7 0.00 0.00 0.00 88 1012.5
20260506094753 13 155 8.0 17.7 0.00 0.00 0.00 88 1012.5
20260506094654 13 136 8.0 17.7 0.00 0.00 0.00 88 1012.6
20260506094553 13 123 8.0 16.1 0.00 0.00 0.00 88 1012.7
20260506094454 13 153 8.0 16.1 0.00 0.00 0.00 88 1012.6
20260506094352 13 160 8.0 16.1 0.00 0.00 0.00 88 1012.7
20260506094243 13 180 8.0 16.1 0.00 0.00 0.00 88 1012.6
20260506094141 13 136 8.0 16.1 0.00 0.00 0.00 88 1012.6
20260506094042 13 163 8.0 16.1 0.00 0.00 0.00 88 1012.5
20260506093942 13 134 8.0 17.7 0.00 0.00 0.00 88 1012.5
20260506093842 13 138 8.0 17.7 0.00 0.00 0.00 88 1012.6
20260506093738 13 172 8.0 17.7 0.00 0.00 0.00 88 1012.6
20260506093635 13 130 8.0 17.7 0.00 0.00 0.00 88 1012.6
20260506093534 13 150 8.0 17.7 0.00 0.00 0.00 88 1012.6
20260506093436 13 162 8.0 17.7 0.00 0.00 0.00 88 1012.6
20260506093336 13 148 8.0 17.7 0.00 0.00 0.00 88 1012.8
20260506093230 13 174 8.0 17.7 0.00 0.00 0.00 88 1012.7
20260506093130 13 146 8.0 17.7 0.00 0.00 0.00 88 1012.7
20260506093029 13 136 6.4 17.7 0.00 0.00 0.00 87 1012.6
20260506092930 13 163 6.4 14.5 0.00 0.00 0.00 87 1012.6
20260506092830 13 177 6.4 14.5 0.00 0.00 0.00 87 1012.5
20260506092720 13 196 6.4 14.5 0.00 0.00 0.00 88 1012.6
20260506092618 13 155 6.4 14.5 0.00 0.00 0.00 87 1012.5
20260506092520 13 194 6.4 14.5 0.00 0.00 0.00 87 1012.6
20260506092418 13 156 6.4 14.5 0.00 0.00 0.00 87 1012.6
20260506092319 13 158 8.0 14.5 0.00 0.00 0.00 87 1012.5
20260506092215 13 153 8.0 17.7 0.00 0.00 0.00 87 1012.5
20260506092114 13 184 8.0 19.3 0.00 0.00 0.00 87 1012.6
20260506092014 13 172 8.0 19.3 0.00 0.00 0.00 87 1012.5
20260506091912 13 142 8.0 19.3 0.00 0.00 0.00 87 1012.5
20260506091814 13 148 9.7 19.3 0.00 0.00 0.00 87 1012.5
20260506091710 13 153 9.7 19.3 0.00 0.00 0.00 87 1012.5
20260506091607 13 188 9.7 19.3 0.00 0.00 0.00 87 1012.6
20260506091508 13 142 9.7 19.3 0.00 0.00 0.00 87 1012.4
20260506091408 13 140 11.3 19.3 0.00 0.00 0.00 87 1012.6
20260506091308 13 151 9.7 19.3 0.00 0.00 0.00 87 1012.5
20260506091157 13 173 9.7 19.3 0.00 0.00 0.00 87 1012.5
20260506091058 13 145 9.7 19.3 0.00 0.00 0.00 87 1012.5
20260506090958 13 130 9.7 19.3 0.00 0.00 0.00 87 1012.6
20260506090858 13 131 9.7 19.3 0.00 0.00 0.00 87 1012.7
20260506090758 13 137 9.7 19.3 0.00 0.00 0.00 87 1012.6
20260506090652 13 138 9.7 19.3 0.00 0.00 0.00 87 1012.6
20260506090550 13 134 9.7 19.3 0.00 0.00 0.00 87 1012.7
20260506090452 13 144 8.0 19.3 0.00 0.00 0.00 87 1012.6
20260506090351 13 145 8.0 19.3 0.00 0.00 0.00 87 1012.8
20260506090252 13 186 8.0 19.3 0.00 0.00 0.00 87 1012.8
20260506090146 13 213 8.0 19.3 0.00 0.00 0.00 87 1012.6
20260506090046 13 203 8.0 19.3 0.00 0.00 0.00 87 1012.7
20260506085946 13 155 8.0 29.0 0.00 0.00 0.00 87 1012.8
20260506085845 13 155 8.0 29.0 0.00 0.00 0.00 87 1012.8
20260506085746 13 143 8.0 29.0 0.00 0.00 0.00 87 1012.7
20260506085636 13 167 8.0 29.0 0.00 0.00 0.00 87 1012.7
20260506085534 13 144 8.0 29.0 0.00 0.00 0.00 87 1012.7
20260506085436 13 134 8.0 29.0 0.00 0.00 0.00 87 1012.9
20260506085335 13 136 8.0 29.0 0.00 0.00 0.00 87 1012.8
20260506085235 13 171 8.0 29.0 0.00 0.00 0.00 87 1012.8
20260506085129 13 142 8.0 29.0 0.00 0.00 0.00 87 1012.8
20260506085028 13 180 8.0 29.0 0.00 0.00 0.00 86 1012.9
20260506084930 13 142 8.0 19.3 0.00 0.00 0.00 86 1012.9
20260506084830 13 149 8.0 19.3 0.00 0.00 0.00 87 1012.8
20260506084730 13 153 8.0 19.3 0.00 0.00 0.00 86 1012.8
20260506084625 13 148 8.0 19.3 0.00 0.00 0.00 86 1012.8
20260506084525 13 183 8.0 19.3 0.00 0.00 0.00 86 1012.8
20260506084425 13 172 8.0 19.3 0.00 0.00 0.00 86 1012.8
20260506084325 13 178 8.0 19.3 0.00 0.00 0.00 86 1012.9
20260506084223 13 156 8.0 19.3 0.00 0.00 0.00 86 1012.9
20260506084115 13 142 8.0 19.3 0.00 0.00 0.00 86 1012.9
20260506084015 13 167 8.0 19.3 0.00 0.00 0.00 86 1013.0
20260506083914 13 147 8.0 22.5 0.00 0.00 0.00 86 1012.9
20260506083813 13 148 8.0 22.5 0.00 0.00 0.00 86 1012.9
20260506083714 13 142 8.0 22.5 0.00 0.00 0.00 86 1012.9
20260506083608 13 169 8.0 22.5 0.00 0.00 0.00 86 1012.9
20260506083508 13 179 8.0 22.5 0.00 0.00 0.00 86 1012.8
20260506083409 13 145 8.0 22.5 0.00 0.00 0.00 86 1012.8
20260506083308 13 128 8.0 22.5 0.00 0.00 0.00 86 1012.8
20260506083208 13 138 6.4 22.5 0.00 0.00 0.00 86 1012.9
20260506083100 13 142 8.0 22.5 0.00 0.00 0.00 86 1012.9
20260506083001 13 162 6.4 22.5 0.00 0.00 0.00 85 1013.0
20260506082901 13 158 6.4 16.1 0.00 0.00 0.00 85 1013.1
20260506082802 13 173 8.0 16.1 0.00 0.00 0.00 85 1013.0
20260506082702 13 139 8.0 16.1 0.00 0.00 0.00 85 1013.0
20260506082550 13 161 6.4 16.1 0.00 0.00 0.00 85 1012.9
20260506082452 13 183 8.0 16.1 0.00 0.00 0.00 85 1013.0
20260506082352 13 164 8.0 16.1 0.00 0.00 0.00 85 1013.0
20260506082252 13 188 8.0 16.1 0.00 0.00 0.00 85 1012.9
20260506082152 13 124 8.0 16.1 0.00 0.00 0.00 85 1012.8
20260506082051 13 170 8.0 17.7 0.00 0.00 0.00 85 1012.9
20260506081950 13 132 9.7 24.1 0.00 0.00 0.00 85 1012.9
20260506081849 13 153 9.7 24.1 0.00 0.00 0.00 85 1012.9
20260506081747 13 175 11.3 24.1 0.00 0.00 0.00 85 1012.9
20260506081646 13 137 11.3 24.1 0.00 0.00 0.00 85 1012.9
20260506081538 13 162 11.3 24.1 0.00 0.00 0.00 85 1012.9
20260506081439 13 142 11.3 24.1 0.00 0.00 0.00 85 1013.0
20260506081340 13 166 11.3 24.1 0.00 0.00 0.00 85 1013.0
20260506081239 13 165 11.3 24.1 0.00 0.00 0.00 85 1012.9
20260506081140 13 190 11.3 24.1 0.00 0.00 0.00 85 1012.7
20260506081036 13 136 11.3 24.1 0.00 0.00 0.00 85 1012.7
20260506080936 13 132 9.7 24.1 0.00 0.00 0.00 84 1012.7
20260506080835 13 191 9.7 24.1 0.00 0.00 0.00 84 1012.7
20260506080734 14 136 9.7 22.5 0.00 0.00 0.00 84 1012.5
20260506080632 14 144 9.7 22.5 0.00 0.00 0.00 84 1012.5
20260506080533 14 134 9.7 22.5 0.00 0.00 0.00 84 1012.6
20260506080433 14 133 9.7 22.5 0.00 0.00 0.00 84 1012.5
20260506080332 14 177 8.0 17.7 0.00 0.00 0.00 84 1012.5
20260506080232 14 167 9.7 25.7 0.00 0.00 0.00 84 1012.7
20260506080131 14 163 9.7 25.7 0.00 0.00 0.00 84 1012.8
20260506073521 14 189 9.7 22.5 0.00 0.00 0.00 83 1012.9
20260506073422 14 117 9.7 22.5 0.00 0.00 0.00 83 1012.9
20260506073322 14 138 9.7 22.5 0.00 0.00 0.00 83 1012.9
20260506073222 14 132 9.7 22.5 0.00 0.00 0.00 82 1013.0
20260506073115 14 150 9.7 22.5 0.00 0.00 0.00 82 1013.0
20260506073016 14 143 9.7 22.5 0.00 0.00 0.00 82 1013.0
20260506072916 14 134 9.7 24.1 0.00 0.00 0.00 82 1013.0
20260506072816 14 130 11.3 24.1 0.00 0.00 0.00 82 1013.0
20260506072716 14 144 11.3 24.1 0.00 0.00 0.00 82 1013.0
20260506072610 14 171 9.7 24.1 0.00 0.00 0.00 82 1012.9
20260506072512 14 172 9.7 24.1 0.00 0.00 0.00 82 1013.0
20260506072412 14 190 9.7 24.1 0.00 0.00 0.00 81 1012.9
20260506072311 14 144 11.3 24.1 0.00 0.00 0.00 81 1013.0
20260506072212 14 148 11.3 24.1 0.00 0.00 0.00 82 1012.9
20260506072112 14 201 11.3 29.0 0.00 0.00 0.00 81 1013.0
20260506072011 14 184 11.3 29.0 0.00 0.00 0.00 81 1013.0
20260506071909 14 163 9.7 29.0 0.00 0.00 0.00 81 1013.2
20260506071808 14 161 9.7 29.0 0.00 0.00 0.00 81 1013.2
20260506071708 14 148 9.7 29.0 0.00 0.00 0.00 81 1013.2
20260506071608 14 171 11.3 29.0 0.00 0.00 0.00 81 1013.1
20260506071507 14 171 9.7 29.0 0.00 0.00 0.00 81 1013.1
20260506071406 14 141 11.3 29.0 0.00 0.00 0.00 81 1013.2
20260506071308 14 180 11.3 29.0 0.00 0.00 0.00 81 1013.2
20260506071206 14 143 11.3 29.0 0.00 0.00 0.00 81 1013.3
20260506071108 14 151 11.3 25.7 0.00 0.00 0.00 81 1013.1
20260506071008 14 139 11.3 25.7 0.00 0.00 0.00 81 1013.2
20260506070901 14 157 9.7 25.7 0.00 0.00 0.00 81 1013.1
20260506070801 14 168 9.7 25.7 0.00 0.00 0.00 81 1013.2
20260506070702 14 157 9.7 25.7 0.00 0.00 0.00 81 1013.1
20260506070600 14 155 9.7 25.7 0.00 0.00 0.00 81 1013.2
20260506070502 14 138 11.3 20.9 0.00 0.00 0.00 81 1013.1
20260506070358 14 165 9.7 27.4 0.00 0.00 0.00 81 1013.2
20260506070255 14 219 9.7 27.4 0.00 0.00 0.00 81 1013.2
20260506070156 14 153 9.7 27.4 0.00 0.00 0.00 81 1013.2
20260506062426 15 167 9.7 20.9 0.00 0.00 0.00 77 1013.4
20260506062325 15 146 9.7 20.9 0.00 0.00 0.00 77 1013.3
20260506062226 15 184 9.7 20.9 0.00 0.00 0.00 77 1013.3
20260506062124 15 145 9.7 20.9 0.00 0.00 0.00 77 1013.3
20260506062026 15 133 9.7 20.9 0.00 0.00 0.00 77 1013.4
20260506061926 15 158 9.7 20.9 0.00 0.00 0.00 76 1013.4
20260506061825 15 140 9.7 22.5 0.00 0.00 0.00 76 1013.5
20260506061726 15 144 9.7 22.5 0.00 0.00 0.00 76 1013.4
20260506061624 15 150 9.7 22.5 0.00 0.00 0.00 76 1013.5
20260506061523 15 148 9.7 22.5 0.00 0.00 0.00 76 1013.4
20260506061422 15 172 8.0 22.5 0.00 0.00 0.00 76 1013.5
20260506061323 15 140 8.0 22.5 0.00 0.00 0.00 75 1013.5
20260506061222 15 148 8.0 22.5 0.00 0.00 0.00 75 1013.5
20260506061124 15 142 8.0 22.5 0.00 0.00 0.00 75 1013.5
20260506061024 15 155 8.0 22.5 0.00 0.00 0.00 75 1013.5
20260506060915 15 146 8.0 22.5 0.00 0.00 0.00 75 1013.4
20260506060812 15 108 8.0 22.5 0.00 0.00 0.00 75 1013.5
20260506060713 15 148 8.0 22.5 0.00 0.00 0.00 75 1013.7
20260506060613 15 146 8.0 22.5 0.00 0.00 0.00 75 1013.5
20260506060513 15 161 8.0 22.5 0.00 0.00 0.00 75 1013.5
20260506060412 15 136 8.0 22.5 0.00 0.00 0.00 75 1013.7
20260506060313 15 150 8.0 22.5 0.00 0.00 0.00 74 1013.7
20260506060214 15 155 8.0 22.5 0.00 0.00 0.00 74 1013.7
20260506060114 15 152 8.0 22.5 0.00 0.00 0.00 74 1013.7
20260506051400 16 173 9.7 20.9 0.00 0.00 0.00 68 1013.7
20260506051300 16 160 9.7 20.9 0.00 0.00 0.00 67 1013.5
20260506051202 16 155 9.7 20.9 0.00 0.00 0.00 67 1013.5
20260506051056 16 148 11.3 20.9 0.00 0.00 0.00 67 1013.7
20260506050956 16 142 11.3 20.9 0.00 0.00 0.00 67 1013.5
20260506050858 16 145 9.7 20.9 0.00 0.00 0.00 67 1013.5
20260506050757 16 135 9.7 20.9 0.00 0.00 0.00 67 1013.7
20260506050658 16 152 9.7 20.9 0.00 0.00 0.00 67 1013.7
20260506050557 16 147 9.7 20.9 0.00 0.00 0.00 66 1013.7
20260506050455 16 153 9.7 20.9 0.00 0.00 0.00 66 1013.7
20260506050356 16 142 9.7 20.9 0.00 0.00 0.00 66 1013.7
20260506050255 16 180 9.7 20.9 0.00 0.00 0.00 66 1013.8
20260506050155 16 142 9.7 20.9 0.00 0.00 0.00 66 1013.8
20260506045048 16 148 8.0 22.5 0.00 0.00 0.00 64 1013.9
20260506044946 16 176 8.0 22.5 0.00 0.00 0.00 65 1013.9
20260506044846 16 153 8.0 22.5 0.00 0.00 0.00 64 1013.9
20260506044747 16 163 9.7 22.5 0.00 0.00 0.00 64 1013.9
20260506044646 16 154 9.7 22.5 0.00 0.00 0.00 64 1013.7
20260506044547 17 186 9.7 22.5 0.00 0.00 0.00 64 1013.8
20260506044448 17 140 9.7 22.5 0.00 0.00 0.00 64 1013.7
20260506044346 17 133 9.7 24.1 0.00 0.00 0.00 64 1013.7
20260506044248 17 126 9.7 24.1 0.00 0.00 0.00 64 1013.5
20260506044146 17 146 11.3 24.1 0.00 0.00 0.00 64 1013.5
20260506044046 17 174 9.7 24.1 0.00 0.00 0.00 64 1013.5
20260506043946 17 152 9.7 24.1 0.00 0.00 0.00 64 1013.4
20260506043848 17 131 9.7 24.1 0.00 0.00 0.00 64 1013.5
20260506043746 17 152 9.7 24.1 0.00 0.00 0.00 63 1013.4
20260506043646 17 150 9.7 24.1 0.00 0.00 0.00 63 1013.3
20260506043548 17 134 9.7 24.1 0.00 0.00 0.00 63 1013.5
20260506043446 17 182 9.7 24.1 0.00 0.00 0.00 63 1013.4
20260506043346 17 142 9.7 24.1 0.00 0.00 0.00 63 1013.5
20260506043248 17 162 9.7 24.1 0.00 0.00 0.00 63 1013.5
20260506043146 17 115 9.7 24.1 0.00 0.00 0.00 63 1013.5
20260506043047 17 146 9.7 24.1 0.00 0.00 0.00 63 1013.8
20260506042947 17 167 9.7 24.1 0.00 0.00 0.00 63 1013.7
20260506042846 17 167 11.3 24.1 0.00 0.00 0.00 63 1013.7
20260506042748 17 150 11.3 24.1 0.00 0.00 0.00 63 1013.7
20260506042648 17 132 9.7 24.1 0.00 0.00 0.00 63 1013.9
20260506042547 17 143 9.7 24.1 0.00 0.00 0.00 63 1013.8
20260506042447 17 142 9.7 24.1 0.00 0.00 0.00 63 1013.9
20260506042346 17 159 9.7 22.5 0.00 0.00 0.00 63 1013.8
20260506042247 17 142 9.7 27.4 0.00 0.00 0.00 63 1013.8
20260506042147 17 169 9.7 27.4 0.00 0.00 0.00 63 1013.9
20260506042047 17 186 9.7 27.4 0.00 0.00 0.00 63 1013.8
20260506041948 17 121 9.7 27.4 0.00 0.00 0.00 63 1013.8
20260506041842 17 138 9.7 27.4 0.00 0.00 0.00 63 1013.8
20260506041743 17 211 9.7 27.4 0.00 0.00 0.00 63 1013.8
20260506041644 17 136 9.7 27.4 0.00 0.00 0.00 63 1013.8
20260506041542 17 138 9.7 27.4 0.00 0.00 0.00 63 1013.9
20260506041442 17 171 9.7 27.4 0.00 0.00 0.00 63 1013.9
20260506041343 17 146 9.7 27.4 0.00 0.00 0.00 63 1013.9
20260506041242 17 138 9.7 25.7 0.00 0.00 0.00 63 1013.9
20260506041140 17 169 8.0 25.7 0.00 0.00 0.00 63 1013.8
20260506041040 17 131 8.0 19.3 0.00 0.00 0.00 63 1013.8
20260506040942 17 144 8.0 19.3 0.00 0.00 0.00 63 1013.8
20260506040840 17 130 8.0 19.3 0.00 0.00 0.00 63 1013.8
20260506040740 17 135 8.0 19.3 0.00 0.00 0.00 63 1013.9
20260506040640 17 169 8.0 19.3 0.00 0.00 0.00 63 1013.8
20260506040540 17 161 8.0 19.3 0.00 0.00 0.00 63 1013.8
20260506040441 17 182 8.0 17.7 0.00 0.00 0.00 63 1013.8
20260506040340 17 165 8.0 17.7 0.00 0.00 0.00 63 1013.7
20260506040242 17 157 8.0 17.7 0.00 0.00 0.00 63 1013.8
20260506040141 17 149 8.0 17.7 0.00 0.00 0.00 63 1013.8
20260506040041 17 150 8.0 17.7 0.00 0.00 0.00 62 1013.8
20260506035936 17 142 8.0 17.7 0.00 0.00 0.00 62 1013.8
20260506035834 17 177 9.7 17.7 0.00 0.00 0.00 62 1013.8
20260506035736 17 272 9.7 20.9 0.00 0.00 0.00 62 1013.7
20260506035636 17 150 9.7 20.9 0.00 0.00 0.00 62 1013.7
20260506035536 17 173 9.7 20.9 0.00 0.00 0.00 62 1013.7
20260506035430 17 157 9.7 20.9 0.00 0.00 0.00 62 1013.7
20260506035331 17 174 9.7 20.9 0.00 0.00 0.00 62 1013.7
20260506035231 17 180 9.7 20.9 0.00 0.00 0.00 62 1013.8
20260506035132 17 161 9.7 20.9 0.00 0.00 0.00 62 1013.8
20260506035029 17 150 9.7 24.1 0.00 0.00 0.00 62 1013.8
20260506034923 17 150 9.7 24.1 0.00 0.00 0.00 62 1013.8
20260506034822 17 149 9.7 24.1 0.00 0.00 0.00 62 1013.8
20260506034723 17 148 8.0 24.1 0.00 0.00 0.00 62 1013.9
20260506034622 17 169 8.0 24.1 0.00 0.00 0.00 62 1013.8
20260506034523 17 140 8.0 24.1 0.00 0.00 0.00 62 1013.9
20260506034422 17 162 8.0 24.1 0.00 0.00 0.00 62 1013.9
20260506034322 17 157 8.0 24.1 0.00 0.00 0.00 61 1013.9
20260506034222 17 125 8.0 24.1 0.00 0.00 0.00 62 1013.9
20260506034123 17 159 8.0 24.1 0.00 0.00 0.00 62 1013.9
20260506034023 17 144 8.0 17.7 0.00 0.00 0.00 62 1014.0
20260506033922 17 115 8.0 17.7 0.00 0.00 0.00 62 1013.9
20260506033823 17 146 6.4 16.1 0.00 0.00 0.00 62 1014.0
20260506033722 17 142 8.0 16.1 0.00 0.00 0.00 62 1014.0
20260506033620 17 176 8.0 16.1 0.00 0.00 0.00 61 1014.1
20260506033520 17 167 8.0 16.1 0.00 0.00 0.00 61 1014.0
20260506033421 17 147 8.0 16.1 0.00 0.00 0.00 61 1013.9
20260506033322 17 196 6.4 16.1 0.00 0.00 0.00 61 1014.0
20260506033214 17 178 6.4 16.1 0.00 0.00 0.00 61 1013.9
20260506033114 17 138 6.4 16.1 0.00 0.00 0.00 61 1013.9
20260506033015 17 202 6.4 16.1 0.00 0.00 0.00 61 1014.0
20260506032916 17 178 6.4 16.1 0.00 0.00 0.00 61 1014.0
20260506032815 17 155 6.4 16.1 0.00 0.00 0.00 61 1014.0
20260506032713 17 102 6.4 11.3 0.00 0.00 0.00 61 1013.9
20260506032612 17 103 6.4 11.3 0.00 0.00 0.00 61 1013.9
20260506032513 17 153 6.4 16.1 0.00 0.00 0.00 61 1014.0
20260506032411 17 144 6.4 17.7 0.00 0.00 0.00 61 1013.9
20260506032309 17 142 6.4 17.7 0.00 0.00 0.00 61 1014.0
20260506032208 17 148 6.4 17.7 0.00 0.00 0.00 61 1014.0
20260506032109 17 170 6.4 17.7 0.00 0.00 0.00 61 1014.0
20260506032008 17 130 6.4 17.7 0.00 0.00 0.00 61 1014.0
20260506031906 17 156 6.4 17.7 0.00 0.00 0.00 61 1013.9
20260506031806 17 142 6.4 17.7 0.00 0.00 0.00 61 1013.9
20260506031707 17 171 6.4 17.7 0.00 0.00 0.00 61 1013.9
20260506031607 17 157 6.4 17.7 0.00 0.00 0.00 61 1013.9
20260506031508 17 157 6.4 16.1 0.00 0.00 0.00 61 1013.9
20260506031406 17 166 6.4 16.1 0.00 0.00 0.00 61 1013.9
20260506031306 17 150 6.4 16.1 0.00 0.00 0.00 61 1013.9
20260506031206 17 146 8.0 16.1 0.00 0.00 0.00 61 1013.8
20260506031107 17 153 8.0 16.1 0.00 0.00 0.00 61 1013.8
20260506031002 17 155 8.0 16.1 0.00 0.00 0.00 61 1013.9
20260506030900 17 144 8.0 16.1 0.00 0.00 0.00 61 1013.9
20260506030801 17 134 8.0 16.1 0.00 0.00 0.00 60 1013.9
20260506030701 17 175 8.0 16.1 0.00 0.00 0.00 61 1013.9
20260506030601 17 130 8.0 14.5 0.00 0.00 0.00 61 1013.9
20260506030459 17 155 8.0 14.5 0.00 0.00 0.00 61 1014.0
20260506030359 17 146 8.0 14.5 0.00 0.00 0.00 60 1014.0
20260506030259 17 138 8.0 16.1 0.00 0.00 0.00 61 1014.0
20260506030159 17 136 6.4 16.1 0.00 0.00 0.00 61 1013.9
20260506030058 17 143 6.4 16.1 0.00 0.00 0.00 61 1013.9
20260506030000 17 161 6.4 16.1 0.00 0.00 0.00 61 1014.0
20260506025858 17 138 6.4 16.1 0.00 0.00 0.00 60 1014.0
20260506025757 17 142 6.4 16.1 0.00 0.00 0.00 60 1013.9
20260506025654 17 146 6.4 16.1 0.00 0.00 0.00 60 1013.8
20260506025555 17 180 6.4 16.1 0.00 0.00 0.00 61 1013.9
20260506025454 17 115 6.4 16.1 0.00 0.00 0.00 61 1013.9
20260506025354 17 168 6.4 16.1 0.00 0.00 0.00 61 1013.9
20260506025255 17 143 6.4 17.7 0.00 0.00 0.00 61 1014.0
20260506025153 17 161 6.4 17.7 0.00 0.00 0.00 61 1014.0
20260506025053 17 155 6.4 17.7 0.00 0.00 0.00 60 1014.0
20260506024952 17 121 6.4 17.7 0.00 0.00 0.00 61 1014.0
20260506024854 17 127 8.0 17.7 0.00 0.00 0.00 60 1014.0
20260506024748 17 158 8.0 17.7 0.00 0.00 0.00 60 1014.0
20260506024646 17 142 8.0 17.7 0.00 0.00 0.00 61 1014.0
20260506024548 17 147 8.0 17.7 0.00 0.00 0.00 60 1014.0
20260506024445 17 133 8.0 17.7 0.00 0.00 0.00 60 1014.0
20260506024345 17 119 6.4 17.7 0.00 0.00 0.00 60 1014.0
20260506024239 17 150 6.4 14.5 0.00 0.00 0.00 60 1014.0
20260506024139 17 149 6.4 14.5 0.00 0.00 0.00 60 1014.0
20260506024040 17 142 6.4 14.5 0.00 0.00 0.00 60 1013.8
20260506023938 17 135 6.4 14.5 0.00 0.00 0.00 60 1013.9
20260506023838 17 126 6.4 14.5 0.00 0.00 0.00 60 1014.0
20260506023739 17 167 6.4 14.5 0.00 0.00 0.00 60 1014.0
20260506023639 17 144 4.8 14.5 0.00 0.00 0.00 60 1014.0
20260506023540 17 161 4.8 12.9 0.00 0.00 0.00 59 1014.0
20260506023439 17 166 4.8 12.9 0.00 0.00 0.00 59 1014.1
20260506023339 17 148 4.8 11.3 0.00 0.00 0.00 60 1014.1
20260506023240 17 123 4.8 11.3 0.00 0.00 0.00 59 1014.1
20260506023138 17 123 4.8 11.3 0.00 0.00 0.00 59 1014.1
20260506023038 17 154 4.8 11.3 0.00 0.00 0.00 59 1014.2
20260506022939 17 121 4.8 11.3 0.00 0.00 0.00 59 1014.2
20260506022839 17 155 4.8 11.3 0.00 0.00 0.00 59 1014.3
20260506022738 17 171 4.8 14.5 0.00 0.00 0.00 59 1014.3
20260506022640 17 145 4.8 17.7 0.00 0.00 0.00 59 1014.3
20260506022539 17 144 6.4 17.7 0.00 0.00 0.00 59 1014.3
20260506022440 17 162 6.4 17.7 0.00 0.00 0.00 59 1014.1
20260506022338 17 143 6.4 17.7 0.00 0.00 0.00 59 1014.2
20260506022239 17 144 6.4 17.7 0.00 0.00 0.00 59 1014.1
20260506022140 17 142 6.4 17.7 0.00 0.00 0.00 59 1014.1
20260506022038 17 142 6.4 17.7 0.00 0.00 0.00 59 1014.1
20260506021940 17 116 6.4 17.7 0.00 0.00 0.00 59 1014.1
20260506021838 17 182 6.4 17.7 0.00 0.00 0.00 59 1014.1
20260506021740 17 136 6.4 16.1 0.00 0.00 0.00 59 1014.3
20260506021635 17 162 6.4 14.5 0.00 0.00 0.00 59 1014.2
20260506021534 17 101 6.4 14.5 0.00 0.00 0.00 59 1014.2
20260506021434 17 159 6.4 14.5 0.00 0.00 0.00 59 1014.3
20260506021335 17 118 6.4 14.5 0.00 0.00 0.00 59 1014.2
20260506021235 17 144 6.4 14.5 0.00 0.00 0.00 59 1014.2
20260506021135 17 119 6.4 14.5 0.00 0.00 0.00 59 1014.2
20260506021034 17 294 6.4 14.5 0.00 0.00 0.00 59 1014.2
20260506020934 17 130 6.4 14.5 0.00 0.00 0.00 59 1014.2
20260506020834 17 124 6.4 14.5 0.00 0.00 0.00 59 1014.2
20260506020735 17 111 6.4 14.5 0.00 0.00 0.00 59 1014.2
20260506020635 17 153 6.4 14.5 0.00 0.00 0.00 59 1014.2
20260506020534 17 185 6.4 17.7 0.00 0.00 0.00 59 1014.1
20260506020434 17 192 6.4 17.7 0.00 0.00 0.00 59 1014.1
20260506020335 17 126 6.4 17.7 0.00 0.00 0.00 59 1014.1
20260506020234 17 118 8.0 19.3 0.00 0.00 0.00 59 1014.1
20260506020134 17 120 8.0 19.3 0.00 0.00 0.00 59 1014.1
20260506020034 17 185 8.0 19.3 0.00 0.00 0.00 59 1014.1
20260506015934 17 185 8.0 19.3 0.00 0.00 0.00 59 1014.1
20260506015834 17 133 8.0 19.3 0.00 0.00 0.00 59 1014.1
20260506015734 17 107 8.0 19.3 0.00 0.00 0.00 59 1014.1
20260506015635 17 144 6.4 19.3 0.00 0.00 0.00 59 1014.1
20260506015535 17 140 6.4 19.3 0.00 0.00 0.00 59 1014.0
20260506015434 17 153 6.4 19.3 0.00 0.00 0.00 59 1014.1
20260506015334 17 158 6.4 19.3 0.00 0.00 0.00 59 1014.1
20260506015235 17 126 6.4 19.3 0.00 0.00 0.00 59 1014.1
20260506015136 17 115 6.4 19.3 0.00 0.00 0.00 59 1014.2
20260506015035 17 170 6.4 19.3 0.00 0.00 0.00 59 1014.2
20260506014934 17 150 6.4 19.3 0.00 0.00 0.00 59 1014.1
20260506014835 17 221 6.4 14.5 0.00 0.00 0.00 59 1014.2
20260506014734 17 171 6.4 14.5 0.00 0.00 0.00 59 1014.1
20260506014634 17 152 6.4 19.3 0.00 0.00 0.00 59 1014.1
20260506014534 17 150 6.4 19.3 0.00 0.00 0.00 59 1014.1
20260506014436 17 156 6.4 19.3 0.00 0.00 0.00 59 1014.1
20260506014332 17 151 6.4 19.3 0.00 0.00 0.00 59 1014.2
20260506014232 17 162 6.4 19.3 0.00 0.00 0.00 58 1014.1
20260506014130 17 145 6.4 19.3 0.00 0.00 0.00 58 1014.1
20260506014030 17 168 6.4 19.3 0.00 0.00 0.00 58 1014.2
20260506013930 17 163 6.4 19.3 0.00 0.00 0.00 58 1014.2
20260506013830 17 172 6.4 19.3 0.00 0.00 0.00 58 1014.1
20260506013731 17 148 6.4 19.3 0.00 0.00 0.00 58 1014.2
20260506013631 17 222 6.4 17.7 0.00 0.00 0.00 58 1014.2
20260506013531 17 159 6.4 17.7 0.00 0.00 0.00 58 1014.2
20260506013430 17 180 6.4 17.7 0.00 0.00 0.00 58 1014.2
20260506013331 17 134 6.4 17.7 0.00 0.00 0.00 58 1014.1
20260506013230 17 148 6.4 17.7 0.00 0.00 0.00 58 1014.2
20260506013130 18 166 6.4 16.1 0.00 0.00 0.00 58 1014.3
20260506013031 18 113 6.4 16.1 0.00 0.00 0.00 58 1014.1
20260506012930 18 159 6.4 16.1 0.00 0.00 0.00 58 1014.1
20260506012832 18 153 6.4 16.1 0.00 0.00 0.00 58 1014.2
20260506012730 18 205 6.4 16.1 0.00 0.00 0.00 58 1014.1
20260506012632 18 166 6.4 16.1 0.00 0.00 0.00 58 1014.1
20260506012530 18 174 6.4 16.1 0.00 0.00 0.00 58 1014.1
20260506012431 18 140 8.0 16.1 0.00 0.00 0.00 57 1014.1
20260506012330 18 123 6.4 16.1 0.00 0.00 0.00 57 1014.0
20260506012230 18 167 6.4 16.1 0.00 0.00 0.00 58 1014.1
20260506012131 18 150 6.4 16.1 0.00 0.00 0.00 58 1014.1
20260506012030 18 124 6.4 16.1 0.00 0.00 0.00 57 1014.0
20260506011930 18 135 6.4 16.1 0.00 0.00 0.00 58 1014.1
20260506011832 18 130 6.4 16.1 0.00 0.00 0.00 57 1014.1
20260506011730 18 173 6.4 19.3 0.00 0.00 0.00 57 1014.2
20260506011631 18 201 6.4 19.3 0.00 0.00 0.00 57 1014.2
20260506011530 18 149 6.4 19.3 0.00 0.00 0.00 57 1014.2
20260506011431 18 196 6.4 19.3 0.00 0.00 0.00 57 1014.2
20260506011330 18 164 6.4 19.3 0.00 0.00 0.00 57 1014.1
20260506011232 18 150 6.4 19.3 0.00 0.00 0.00 57 1014.2
20260506011131 18 121 6.4 19.3 0.00 0.00 0.00 57 1014.1
20260506011026 18 164 6.4 19.3 0.00 0.00 0.00 57 1014.2
20260506010927 18 133 6.4 19.3 0.00 0.00 0.00 57 1014.1
20260506010826 18 156 6.4 19.3 0.00 0.00 0.00 57 1014.1
20260506010726 18 151 6.4 16.1 0.00 0.00 0.00 57 1014.1
20260506010627 18 136 6.4 16.1 0.00 0.00 0.00 57 1014.1
20260506010526 18 178 6.4 16.1 0.00 0.00 0.00 57 1014.1
20260506010427 18 165 6.4 16.1 0.00 0.00 0.00 57 1014.1
20260506010327 18 155 6.4 16.1 0.00 0.00 0.00 57 1014.1
20260506010226 18 169 6.4 16.1 0.00 0.00 0.00 57 1014.1
20260506010127 18 139 6.4 16.1 0.00 0.00 0.00 57 1014.1
20260506010027 18 169 6.4 16.1 0.00 0.00 0.00 57 1014.0
20260506005928 18 180 6.4 16.1 0.00 0.00 0.00 57 1014.0
20260506005826 18 157 6.4 14.5 0.00 0.00 0.00 57 1014.1
20260506005726 18 146 6.4 14.5 0.00 0.00 0.00 57 1014.0
20260506005626 18 163 6.4 14.5 0.00 0.00 0.00 57 1014.2
20260506005528 18 153 6.4 14.5 0.00 0.00 0.00 57 1014.1
20260506005427 18 153 6.4 14.5 0.00 0.00 0.00 57 1014.1
20260506005326 18 117 6.4 14.5 0.00 0.00 0.00 56 1014.1
20260506005226 18 157 6.4 14.5 0.00 0.00 0.00 56 1014.1
20260506005126 18 171 6.4 14.5 0.00 0.00 0.00 56 1014.2
20260506005028 18 174 6.4 14.5 0.00 0.00 0.00 56 1014.0
20260506004927 18 153 6.4 14.5 0.00 0.00 0.00 56 1014.1
20260506004826 18 157 6.4 12.9 0.00 0.00 0.00 56 1014.1
20260506004727 18 147 6.4 14.5 0.00 0.00 0.00 56 1014.0
20260506004627 18 134 6.4 14.5 0.00 0.00 0.00 56 1014.1
20260506004527 18 157 6.4 14.5 0.00 0.00 0.00 56 1014.0
20260506004427 18 146 6.4 14.5 0.00 0.00 0.00 56 1014.0
20260506004327 18 131 6.4 14.5 0.00 0.00 0.00 56 1014.0
20260506004227 18 142 6.4 14.5 0.00 0.00 0.00 56 1014.0
20260506004126 18 166 6.4 14.5 0.00 0.00 0.00 56 1013.9
20260506004026 18 149 6.4 14.5 0.00 0.00 0.00 55 1014.0
20260506003927 18 181 6.4 14.5 0.00 0.00 0.00 55 1014.0
20260506003828 18 186 6.4 14.5 0.00 0.00 0.00 55 1013.8
20260506003722 18 151 6.4 12.9 0.00 0.00 0.00 55 1013.9
20260506003623 18 132 6.4 12.9 0.00 0.00 0.00 55 1013.9
20260506003523 18 135 6.4 12.9 0.00 0.00 0.00 55 1013.8
20260506003423 18 160 6.4 12.9 0.00 0.00 0.00 55 1014.0
20260506003323 18 146 6.4 12.9 0.00 0.00 0.00 55 1013.9
20260506003223 18 168 6.4 12.9 0.00 0.00 0.00 54 1013.9
20260506003122 18 133 6.4 12.9 0.00 0.00 0.00 54 1014.0
20260506003023 18 200 4.8 12.9 0.00 0.00 0.00 54 1013.9
20260506002923 18 175 4.8 9.7 0.00 0.00 0.00 54 1013.9
20260506002823 18 175 4.8 9.7 0.00 0.00 0.00 54 1013.9
20260506002722 18 177 4.8 9.7 0.00 0.00 0.00 54 1013.9
20260506002624 18 161 4.8 9.7 0.00 0.00 0.00 54 1013.9
20260506002523 18 164 4.8 9.7 0.00 0.00 0.00 54 1013.9
20260506002422 18 168 4.8 9.7 0.00 0.00 0.00 54 1014.0
20260506002323 18 159 4.8 9.7 0.00 0.00 0.00 54 1013.9
20260506002224 18 167 3.2 9.7 0.00 0.00 0.00 54 1013.9
20260506002122 18 185 3.2 9.7 0.00 0.00 0.00 53 1013.9
20260506002022 18 157 3.2 9.7 0.00 0.00 0.00 53 1014.0
20260506001923 18 136 3.2 9.7 0.00 0.00 0.00 53 1013.9
20260506001821 18 136 1.6 9.7 0.00 0.00 0.00 53 1014.0
20260506001722 18 150 1.6 9.7 0.00 0.00 0.00 53 1013.9
20260506001619 18 151 1.6 9.7 0.00 0.00 0.00 53 1014.0
20260506001517 18 148 1.6 9.7 0.00 0.00 0.00 53 1013.9
20260506001414 18 148 1.6 9.7 0.00 0.00 0.00 52 1014.0
20260506001311 18 188 1.6 11.3 0.00 0.00 0.00 53 1014.1
20260506001208 18 188 3.2 11.3 0.00 0.00 0.00 52 1014.0
20260506001106 18 159 1.6 11.3 0.00 0.00 0.00 52 1014.0
20260506001007 18 150 1.6 11.3 0.00 0.00 0.00 52 1014.0
20260506000904 18 164 1.6 11.3 0.00 0.00 0.00 52 1014.0
20260506000801 19 165 1.6 11.3 0.00 0.00 0.00 52 1013.9
20260506000658 19 175 1.6 11.3 0.00 0.00 0.00 52 1014.0
20260506000559 19 133 1.6 11.3 0.00 0.00 0.00 52 1014.0
20260506000459 19 150 1.6 14.5 0.00 0.00 0.00 52 1014.0
20260506000401 19 186 1.6 14.5 0.00 0.00 0.00 51 1014.0
20260506000255 19 169 1.6 14.5 0.00 0.00 0.00 51 1014.0
20260506000154 19 150 1.6 14.5 0.00 0.00 0.00 51 1014.0
20260506000055 19 196 1.6 14.5 0.00 0.00 0.00 51 1014.1
20260505235955 19 190 1.6 14.5 0.00 0.00 0.00 51 1014.1
20260505235853 19 165 3.2 14.5 0.00 0.00 0.00 51 1014.1
20260505235746 19 165 3.2 14.5 0.00 0.00 0.00 51 1014.1
20260505235647 19 177 3.2 14.5 0.00 0.00 0.00 51 1014.0
20260505235544 19 196 1.6 14.5 0.00 0.00 0.00 51 1014.0
20260505235443 19 157 1.6 12.9 0.00 0.00 0.00 51 1014.0
20260505235343 19 155 1.6 9.7 0.00 0.00 0.00 51 1013.9
20260505235243 19 180 1.6 9.7 0.00 0.00 0.00 51 1014.0
20260505235140 19 175 1.6 9.7 0.00 0.00 0.00 51 1014.0
20260505235037 19 165 1.6 12.9 0.00 0.00 0.00 50 1014.0
20260505234935 20 144 1.6 12.9 0.00 0.00 0.00 50 1013.9
20260505234838 20 164 3.2 12.9 0.00 0.00 0.00 50 1014.0
20260505234738 20 138 1.6 12.9 0.00 0.00 0.00 50 1014.0
20260505234635 20 178 1.6 12.9 0.00 0.00 0.00 50 1013.9
20260505234536 20 221 1.6 12.9 0.00 0.00 0.00 50 1014.0
20260505234433 20 159 1.6 12.9 0.00 0.00 0.00 50 1014.1
20260505234331 20 169 1.6 12.9 0.00 0.00 0.00 50 1014.0
20260505234221 20 196 1.6 12.9 0.00 0.00 0.00 50 1014.0
20260505234121 20 129 1.6 12.9 0.00 0.00 0.00 50 1014.0
20260505234022 20 136 1.6 12.9 0.00 0.00 0.00 49 1014.0
20260505233920 20 156 0.0 12.9 0.00 0.00 0.00 49 1014.0
20260505233821 20 270 0.0 3.2 0.00 0.00 0.00 49 1014.0
20260505233714 20 131 0.0 3.2 0.00 0.00 0.00 49 1014.0
20260505233614 20 128 0.0 3.2 0.00 0.00 0.00 48 1014.0
20260505233513 20 125 0.0 3.2 0.00 0.00 0.00 49 1013.9
20260505233415 20 213 0.0 3.2 0.00 0.00 0.00 49 1013.9
20260505233315 20 146 0.0 3.2 0.00 0.00 0.00 49 1014.0
20260505233210 20 146 0.0 3.2 0.00 0.00 0.00 48 1013.9
20260505233109 20 153 0.0 1.6 0.00 0.00 0.00 48 1013.9
20260505233010 20 154 0.0 1.6 0.00 0.00 0.00 49 1013.9
20260505232909 20 158 0.0 0.0 0.00 0.00 0.00 48 1013.8
20260505232809 20 160 0.0 0.0 0.00 0.00 0.00 48 1013.8
20260505232659 20 187 0.0 0.0 0.00 0.00 0.00 49 1013.8
20260505232558 20 146 0.0 0.0 0.00 0.00 0.00 49 1013.8
20260505232459 20 153 0.0 0.0 0.00 0.00 0.00 48 1013.8
20260505232359 20 133 0.0 0.0 0.00 0.00 0.00 48 1013.8
20260505232259 20 182 0.0 0.0 0.00 0.00 0.00 48 1013.9
20260505232157 20 127 0.0 0.0 0.00 0.00 0.00 48 1013.9
20260505232056 20 152 0.0 0.0 0.00 0.00 0.00 48 1013.8
20260505231956 20 177 0.0 0.0 0.00 0.00 0.00 48 1013.8
20260505231856 20 183 0.0 0.0 0.00 0.00 0.00 48 1013.7
20260505231753 20 178 0.0 0.0 0.00 0.00 0.00 48 1013.9
20260505231646 20 148 0.0 0.0 0.00 0.00 0.00 48 1013.9
20260505231547 20 155 0.0 0.0 0.00 0.00 0.00 48 1013.7
20260505231446 20 232 0.0 0.0 0.00 0.00 0.00 47 1013.9
20260505231347 20 211 0.0 0.0 0.00 0.00 0.00 48 1013.8
20260505231247 20 166 0.0 0.0 0.00 0.00 0.00 48 1013.8
20260505231140 20 171 0.0 0.0 0.00 0.00 0.00 48 1013.8
20260505231037 20 160 0.0 0.0 0.00 0.00 0.00 48 1013.9
20260505230937 20 148 0.0 0.0 0.00 0.00 0.00 48 1013.8
20260505230836 20 202 0.0 0.0 0.00 0.00 0.00 48 1013.8
20260505230736 20 176 0.0 0.0 0.00 0.00 0.00 47 1013.8
20260505230632 20 190 0.0 0.0 0.00 0.00 0.00 48 1013.7
20260505230534 20 156 0.0 0.0 0.00 0.00 0.00 48 1013.9
20260505230432 20 146 0.0 0.0 0.00 0.00 0.00 48 1013.8
20260505230333 20 160 0.0 0.0 0.00 0.00 0.00 48 1013.9
20260505230231 20 171 0.0 0.0 0.00 0.00 0.00 49 1013.8
20260505230128 20 175 0.0 0.0 0.00 0.00 0.00 48 1013.8
20260505230028 21 177 0.0 0.0 0.00 0.00 0.00 48 1013.8
20260505225930 21 186 0.0 0.0 0.00 0.00 0.00 49 1013.8
20260505225827 21 161 0.0 0.0 0.00 0.00 0.00 49 1013.9
20260505225725 21 198 0.0 0.0 0.00 0.00 0.00 49 1013.8
20260505225614 21 153 0.0 0.0 0.00 0.00 0.00 49 1013.8
20260505225514 21 171 0.0 0.0 0.00 0.00 0.00 48 1013.9
20260505225413 21 164 0.0 0.0 0.00 0.00 0.00 49 1013.9
20260505225314 21 173 0.0 0.0 0.00 0.00 0.00 49 1013.8
20260505225212 21 169 0.0 0.0 0.00 0.00 0.00 48 1013.7
20260505225106 21 165 0.0 0.0 0.00 0.00 0.00 48 1013.8
20260505225008 21 131 0.0 0.0 0.00 0.00 0.00 48 1013.7
20260505224906 21 156 0.0 0.0 0.00 0.00 0.00 49 1013.8
20260505224806 21 155 0.0 0.0 0.00 0.00 0.00 48 1013.8
20260505224707 21 128 0.0 0.0 0.00 0.00 0.00 49 1013.9
20260505224600 21 128 0.0 0.0 0.00 0.00 0.00 48 1013.9
20260505224500 21 128 0.0 0.0 0.00 0.00 0.00 48 1013.9
20260505224401 21 127 0.0 0.0 0.00 0.00 0.00 48 1013.9
20260505224301 21 152 0.0 0.0 0.00 0.00 0.00 48 1013.9
20260505224200 21 205 0.0 0.0 0.00 0.00 0.00 48 1013.8
20260505224052 21 158 0.0 0.0 0.00 0.00 0.00 47 1013.9
20260505223954 21 133 0.0 0.0 0.00 0.00 0.00 48 1013.8
20260505223852 21 165 0.0 0.0 0.00 0.00 0.00 47 1013.9
20260505223752 21 182 0.0 0.0 0.00 0.00 0.00 47 1013.9
20260505223650 21 153 0.0 0.0 0.00 0.00 0.00 47 1013.9
20260505223547 21 165 0.0 0.0 0.00 0.00 0.00 48 1013.9
20260505223444 21 144 0.0 0.0 0.00 0.00 0.00 48 1013.8
20260505223346 21 159 0.0 0.0 0.00 0.00 0.00 46 1013.8
20260505223245 21 156 0.0 0.0 0.00 0.00 0.00 47 1013.8
20260505223144 21 156 0.0 0.0 0.00 0.00 0.00 47 1013.8
20260505223042 21 147 0.0 0.0 0.00 0.00 0.00 47 1013.8
20260505222942 21 163 0.0 0.0 0.00 0.00 0.00 47 1013.8
20260505222842 21 190 0.0 0.0 0.00 0.00 0.00 48 1013.8
20260505222741 21 155 0.0 0.0 0.00 0.00 0.00 47 1013.9
20260505222638 21 111 0.0 0.0 0.00 0.00 0.00 46 1013.9
20260505222533 21 156 0.0 0.0 0.00 0.00 0.00 47 1013.9
20260505222433 21 171 0.0 0.0 0.00 0.00 0.00 46 1013.8
20260505222333 21 180 0.0 0.0 0.00 0.00 0.00 46 1013.9
20260505222232 21 181 0.0 0.0 0.00 0.00 0.00 47 1013.8
20260505222128 21 147 0.0 0.0 0.00 0.00 0.00 47 1013.8
20260505222029 21 148 0.0 0.0 0.00 0.00 0.00 46 1013.8
20260505221926 21 181 0.0 0.0 0.00 0.00 0.00 46 1013.8
20260505221827 21 163 0.0 0.0 0.00 0.00 0.00 47 1013.8
20260505221725 21 146 0.0 0.0 0.00 0.00 0.00 47 1013.8
20260505221622 21 190 0.0 0.0 0.00 0.00 0.00 47 1013.7
20260505221519 21 153 0.0 0.0 0.00 0.00 0.00 47 1013.7
20260505221416 21 165 0.0 0.0 0.00 0.00 0.00 47 1013.7
20260505221317 21 135 0.0 0.0 0.00 0.00 0.00 47 1013.7
20260505221216 21 155 0.0 0.0 0.00 0.00 0.00 46 1013.8
20260505221116 21 174 0.0 0.0 0.00 0.00 0.00 46 1013.8
20260505221009 21 195 0.0 0.0 0.00 0.00 0.00 46 1013.8
20260505220906 21 180 0.0 0.0 0.00 0.00 0.00 47 1013.8
20260505220807 21 142 0.0 0.0 0.00 0.00 0.00 46 1013.8
20260505220707 21 184 0.0 0.0 0.00 0.00 0.00 46 1013.8
20260505220606 21 175 0.0 0.0 0.00 0.00 0.00 47 1013.8
20260505220500 21 155 0.0 0.0 0.00 0.00 0.00 46 1013.8
20260505220400 21 186 0.0 0.0 0.00 0.00 0.00 45 1013.8
20260505220301 21 174 0.0 0.0 0.00 0.00 0.00 45 1013.8
20260505220201 21 182 0.0 0.0 0.00 0.00 0.00 46 1013.7
20260505220101 21 131 0.0 0.0 0.00 0.00 0.00 46 1013.9
20260505215957 21 181 0.0 0.0 0.00 0.00 0.00 46 1013.8
20260505215856 21 197 0.0 0.0 0.00 0.00 0.00 46 1013.8
20260505215756 21 176 0.0 0.0 0.00 0.00 0.00 45 1013.9
20260505215658 21 169 0.0 0.0 0.00 0.00 0.00 46 1013.8
20260505215555 21 194 0.0 0.0 0.00 0.00 0.00 45 1013.9
20260505215447 21 140 0.0 0.0 0.00 0.00 0.00 45 1013.8
20260505215345 21 179 0.0 0.0 0.00 0.00 0.00 45 1013.9
20260505215245 21 156 0.0 0.0 0.00 0.00 0.00 45 1014.0
20260505215144 21 178 0.0 0.0 0.00 0.00 0.00 46 1014.0
20260505215044 21 123 0.0 0.0 0.00 0.00 0.00 46 1014.0
20260505214938 21 187 0.0 0.0 0.00 0.00 0.00 47 1014.0
20260505214839 21 130 0.0 0.0 0.00 0.00 0.00 46 1014.0
20260505214739 21 182 0.0 0.0 0.00 0.00 0.00 46 1013.9
20260505214639 21 149 0.0 0.0 0.00 0.00 0.00 46 1013.9
20260505214539 21 150 0.0 0.0 0.00 0.00 0.00 45 1013.9
20260505214433 21 157 0.0 0.0 0.00 0.00 0.00 46 1014.0
20260505214332 21 220 0.0 0.0 0.00 0.00 0.00 46 1014.0
20260505214232 21 132 0.0 0.0 0.00 0.00 0.00 46 1014.0
20260505214133 21 133 0.0 0.0 0.00 0.00 0.00 45 1014.0
20260505214033 21 209 0.0 0.0 0.00 0.00 0.00 46 1013.9
20260505213927 21 180 0.0 0.0 0.00 0.00 0.00 45 1013.9
20260505213825 22 154 0.0 0.0 0.00 0.00 0.00 46 1013.9
20260505213727 22 167 0.0 0.0 0.00 0.00 0.00 44 1014.1
20260505213624 22 213 0.0 0.0 0.00 0.00 0.00 45 1013.9
20260505213522 22 161 0.0 0.0 0.00 0.00 0.00 45 1013.9
20260505213417 22 148 0.0 0.0 0.00 0.00 0.00 45 1014.0
20260505213316 22 146 0.0 0.0 0.00 0.00 0.00 44 1013.9
20260505213216 22 136 0.0 0.0 0.00 0.00 0.00 44 1013.9
20260505213117 22 169 0.0 0.0 0.00 0.00 0.00 46 1013.8
20260505213017 22 163 0.0 0.0 0.00 0.00 0.00 46 1013.9
20260505212911 22 165 0.0 0.0 0.00 0.00 0.00 45 1014.0
20260505212810 22 136 0.0 0.0 0.00 0.00 0.00 45 1014.0
20260505212711 22 142 0.0 0.0 0.00 0.00 0.00 45 1014.0
20260505212611 22 170 0.0 0.0 0.00 0.00 0.00 46 1014.0
20260505212510 22 80 0.0 0.0 0.00 0.00 0.00 47 1014.0
20260505212400 22 163 0.0 0.0 0.00 0.00 0.00 47 1014.1
20260505212301 22 44 0.0 0.0 0.00 0.00 0.00 46 1014.1
20260505212159 22 159 0.0 0.0 0.00 0.00 0.00 46 1014.0
20260505212101 22 114 0.0 0.0 0.00 0.00 0.00 46 1014.0
20260505212001 22 125 0.0 0.0 0.00 0.00 0.00 47 1014.0
20260505211858 22 105 0.0 0.0 0.00 0.00 0.00 47 1014.1
20260505211758 22 207 0.0 0.0 0.00 0.00 0.00 46 1014.1
20260505211657 22 154 0.0 0.0 0.00 0.00 0.00 48 1014.1
20260505211557 22 83 0.0 0.0 0.00 0.00 0.00 46 1014.1
20260505211454 22 205 0.0 0.0 0.00 0.00 0.00 45 1014.1
20260505211348 22 182 0.0 0.0 0.00 0.00 0.00 45 1014.1
20260505211250 22 118 0.0 0.0 0.00 0.00 0.00 46 1014.2
20260505211149 22 130 0.0 0.0 0.00 0.00 0.00 46 1014.0
20260505211048 22 120 0.0 0.0 0.00 0.00 0.00 45 1014.1
20260505210949 22 167 0.0 0.0 0.00 0.00 0.00 46 1014.1
20260505210841 22 178 0.0 0.0 0.00 0.00 0.00 46 1014.2
20260505210738 22 169 0.0 0.0 0.00 0.00 0.00 46 1014.0
20260505210639 22 169 0.0 0.0 0.00 0.00 0.00 45 1014.0
20260505210539 22 153 0.0 0.0 0.00 0.00 0.00 45 1014.1
20260505210439 22 156 0.0 0.0 0.00 0.00 0.00 46 1014.1
20260505210334 22 133 0.0 0.0 0.00 0.00 0.00 46 1014.0
20260505210234 22 144 0.0 0.0 0.00 0.00 0.00 45 1014.1
20260505210134 22 222 0.0 0.0 0.00 0.00 0.00 44 1014.0
20260505210036 22 192 0.0 0.0 0.00 0.00 0.00 45 1014.1
20260505205933 22 178 0.0 0.0 0.00 0.00 0.00 44 1014.1
20260505205827 22 152 0.0 0.0 0.00 0.00 0.00 45 1014.1
20260505205725 22 173 0.0 0.0 0.00 0.00 0.00 45 1014.1
20260505205627 22 146 0.0 0.0 0.00 0.00 0.00 45 1014.1
20260505205526 22 169 0.0 0.0 0.00 0.00 0.00 44 1014.1
20260505205426 22 205 0.0 0.0 0.00 0.00 0.00 44 1014.2
20260505205316 22 190 0.0 0.0 0.00 0.00 0.00 44 1014.1
20260505205216 22 170 0.0 0.0 0.00 0.00 0.00 43 1014.1
20260505205116 22 144 0.0 0.0 0.00 0.00 0.00 43 1014.1
20260505205017 22 233 0.0 0.0 0.00 0.00 0.00 45 1014.3
20260505204917 22 113 0.0 0.0 0.00 0.00 0.00 45 1014.2
20260505204817 22 161 0.0 0.0 0.00 0.00 0.00 43 1014.2
20260505204713 22 137 0.0 0.0 0.00 0.00 0.00 44 1014.2
20260505204614 22 134 0.0 0.0 0.00 0.00 0.00 43 1014.1
20260505204513 22 175 0.0 0.0 0.00 0.00 0.00 43 1014.2
20260505204411 23 197 0.0 0.0 0.00 0.00 0.00 43 1014.3
20260505204305 23 154 0.0 0.0 0.00 0.00 0.00 43 1014.3
20260505204205 23 138 0.0 0.0 0.00 0.00 0.00 42 1014.2
20260505204105 23 161 0.0 0.0 0.00 0.00 0.00 43 1014.3
20260505204004 23 176 0.0 0.0 0.00 0.00 0.00 44 1014.3
20260505203905 23 71 0.0 0.0 0.00 0.00 0.00 44 1014.4
20260505203758 23 154 0.0 0.0 0.00 0.00 0.00 44 1014.3
20260505203658 23 109 0.0 0.0 0.00 0.00 0.00 43 1014.3
20260505203601 23 192 0.0 0.0 0.00 0.00 0.00 43 1014.3
20260505203457 23 55 0.0 0.0 0.00 0.00 0.00 42 1014.3
20260505203355 23 142 0.0 0.0 0.00 0.00 0.00 42 1014.2
20260505203249 23 182 0.0 0.0 0.00 0.00 0.00 41 1014.2
20260505203148 23 165 0.0 0.0 0.00 0.00 0.00 41 1014.2
20260505203049 23 140 0.0 0.0 0.00 0.00 0.00 41 1014.2
20260505202949 23 311 0.0 0.0 0.00 0.00 0.00 43 1014.2
20260505202848 23 198 0.0 0.0 0.00 0.00 0.00 44 1014.2
20260505202744 23 157 0.0 0.0 0.00 0.00 0.00 43 1014.1
20260505202642 23 156 0.0 0.0 0.00 0.00 0.00 45 1014.2
20260505202543 23 167 0.0 0.0 0.00 0.00 0.00 42 1014.2
20260505202443 23 149 0.0 0.0 0.00 0.00 0.00 41 1014.0
20260505202343 23 196 0.0 0.0 0.00 0.00 0.00 43 1014.2
20260505202234 22 165 0.0 0.0 0.00 0.00 0.00 42 1014.2
20260505202133 22 178 0.0 0.0 0.00 0.00 0.00 41 1014.2
20260505202032 22 157 0.0 0.0 0.00 0.00 0.00 41 1014.2
20260505201933 23 152 0.0 0.0 0.00 0.00 0.00 42 1014.1
20260505201832 23 236 0.0 0.0 0.00 0.00 0.00 42 1014.2
20260505201725 23 159 0.0 0.0 0.00 0.00 0.00 43 1014.3
20260505201626 23 99 0.0 0.0 0.00 0.00 0.00 44 1014.3
20260505201526 23 180 0.0 0.0 0.00 0.00 0.00 42 1014.3
20260505201427 22 133 0.0 0.0 0.00 0.00 0.00 43 1014.4
20260505201327 22 143 0.0 0.0 0.00 0.00 0.00 43 1014.5
20260505201224 22 150 0.0 0.0 0.00 0.00 0.00 42 1014.5
20260505201123 22 208 0.0 0.0 0.00 0.00 0.00 43 1014.4
20260505201024 22 198 0.0 0.0 0.00 0.00 0.00 41 1014.4
20260505200923 22 171 0.0 0.0 0.00 0.00 0.00 42 1014.5
20260505200820 22 205 0.0 0.0 0.00 0.00 0.00 42 1014.3
20260505200712 22 157 0.0 0.0 0.00 0.00 0.00 44 1014.3
20260505200611 22 136 0.0 0.0 0.00 0.00 0.00 43 1014.2
20260505200512 22 153 0.0 0.0 0.00 0.00 0.00 44 1014.4
20260505200413 22 178 0.0 0.0 0.00 0.00 0.00 46 1014.4
20260505200310 22 131 0.0 0.0 0.00 0.00 0.00 45 1014.5
20260505200205 22 181 0.0 0.0 0.00 0.00 0.00 45 1014.5
20260505200105 22 195 0.0 0.0 0.00 0.00 0.00 45 1014.6
20260505200005 22 161 0.0 0.0 0.00 0.00 0.00 44 1014.6
20260505195904 22 189 0.0 0.0 0.00 0.00 0.00 45 1014.6
20260505195805 22 182 0.0 0.0 0.00 0.00 0.00 45 1014.7
20260505195700 22 205 0.0 0.0 0.00 0.00 0.00 47 1014.6
20260505195558 22 146 0.0 0.0 0.00 0.00 0.00 46 1014.6
20260505195459 22 136 0.0 0.0 0.00 0.00 0.00 45 1014.6
20260505195359 22 184 0.0 0.0 0.00 0.00 0.00 46 1014.6
20260505195258 22 177 0.0 0.0 0.00 0.00 0.00 46 1014.6
20260505195150 22 132 0.0 0.0 0.00 0.00 0.00 46 1014.5
20260505195052 22 128 0.0 0.0 0.00 0.00 0.00 45 1014.7
20260505194950 22 240 0.0 0.0 0.00 0.00 0.00 46 1014.7
20260505194850 22 169 0.0 0.0 0.00 0.00 0.00 45 1014.6
20260505194749 22 160 0.0 0.0 0.00 0.00 0.00 46 1014.7
20260505194645 22 130 0.0 0.0 0.00 0.00 0.00 46 1014.6
20260505194543 22 182 0.0 0.0 0.00 0.00 0.00 45 1014.5
20260505194442 22 161 0.0 0.0 0.00 0.00 0.00 45 1014.6
20260505194344 22 111 0.0 0.0 0.00 0.00 0.00 44 1014.6
20260505194243 22 198 0.0 0.0 0.00 0.00 0.00 44 1014.6
20260505194135 23 275 0.0 0.0 0.00 0.00 0.00 45 1014.8
20260505194037 23 150 0.0 0.0 0.00 0.00 0.00 45 1014.5
20260505193937 23 178 0.0 0.0 0.00 0.00 0.00 43 1014.6
20260505193835 23 177 0.0 0.0 0.00 0.00 0.00 45 1014.6
20260505193737 23 171 0.0 0.0 0.00 0.00 0.00 45 1014.6
20260505193629 23 107 0.0 0.0 0.00 0.00 0.00 44 1014.5
20260505193531 23 123 0.0 0.0 0.00 0.00 0.00 45 1014.6
20260505193430 23 126 0.0 0.0 0.00 0.00 0.00 45 1014.8
20260505193329 23 134 0.0 0.0 0.00 0.00 0.00 46 1014.6
20260505193226 23 144 0.0 0.0 0.00 0.00 0.00 46 1014.7
20260505193122 23 196 0.0 0.0 0.00 0.00 0.00 45 1014.7
20260505193023 23 136 0.0 0.0 0.00 0.00 0.00 45 1014.8
20260505192923 23 153 0.0 0.0 0.00 0.00 0.00 45 1014.7
20260505192823 23 170 0.0 0.0 0.00 0.00 0.00 45 1014.8
20260505192721 23 121 0.0 0.0 0.00 0.00 0.00 46 1014.9
20260505192615 23 109 0.0 0.0 0.00 0.00 0.00 45 1014.8
20260505192514 23 227 0.0 0.0 0.00 0.00 0.00 45 1014.8
20260505192415 22 153 0.0 0.0 0.00 0.00 0.00 45 1014.8
20260505192315 22 144 0.0 0.0 0.00 0.00 0.00 46 1014.7
20260505192215 22 126 0.0 0.0 0.00 0.00 0.00 45 1014.8
20260505192104 22 133 0.0 0.0 0.00 0.00 0.00 44 1014.8
20260505192004 22 124 0.0 0.0 0.00 0.00 0.00 44 1014.7
20260505191904 22 165 0.0 0.0 0.00 0.00 0.00 43 1014.8
20260505191804 22 159 0.0 0.0 0.00 0.00 0.00 43 1014.8
20260505191705 22 157 0.0 0.0 0.00 0.00 0.00 44 1014.9
20260505191558 22 181 0.0 0.0 0.00 0.00 0.00 47 1014.8
20260505191459 22 146 0.0 0.0 0.00 0.00 0.00 44 1014.9
20260505191359 22 125 0.0 0.0 0.00 0.00 0.00 44 1015.0
20260505191259 22 182 0.0 0.0 0.00 0.00 0.00 43 1014.9
20260505191158 23 137 0.0 0.0 0.00 0.00 0.00 44 1014.9
20260505191056 23 141 0.0 0.0 0.00 0.00 0.00 45 1015.0
20260505190956 23 203 0.0 0.0 0.00 0.00 0.00 45 1015.0
20260505190856 23 165 0.0 0.0 0.00 0.00 0.00 45 1015.1
20260505190753 23 134 0.0 0.0 0.00 0.00 0.00 46 1015.0
20260505190653 23 134 0.0 0.0 0.00 0.00 0.00 46 1015.1
20260505190546 23 104 0.0 0.0 0.00 0.00 0.00 45 1015.1
20260505190346 22 125 0.0 0.0 0.00 0.00 0.00 44 1015.3
20260505190245 22 130 0.0 0.0 0.00 0.00 0.00 44 1015.3
20260505190142 22 133 0.0 0.0 0.00 0.00 0.00 45 1015.3
20260505190037 22 111 0.0 0.0 0.00 0.00 0.00 44 1015.4
20260505185937 22 158 0.0 0.0 0.00 0.00 0.00 45 1015.1
20260505185837 22 136 0.0 0.0 0.00 0.00 0.00 46 1015.3
20260505185736 22 150 0.0 0.0 0.00 0.00 0.00 45 1015.3
20260505185636 22 123 0.0 0.0 0.00 0.00 0.00 47 1015.3
20260505185531 22 154 0.0 0.0 0.00 0.00 0.00 47 1015.4
20260505185433 22 169 0.0 0.0 0.00 0.00 0.00 47 1015.5
20260505185333 22 167 0.0 0.0 0.00 0.00 0.00 45 1015.3
20260505185233 22 159 0.0 0.0 0.00 0.00 0.00 45 1015.5
20260505185131 22 166 0.0 0.0 0.00 0.00 0.00 45 1015.5
20260505185025 23 143 0.0 0.0 0.00 0.00 0.00 45 1015.4
20260505184926 23 168 0.0 0.0 0.00 0.00 0.00 45 1015.4
20260505184826 23 187 0.0 0.0 0.00 0.00 0.00 44 1015.5
20260505184725 23 167 0.0 0.0 0.00 0.00 0.00 44 1015.5
20260505184627 23 266 0.0 0.0 0.00 0.00 0.00 44 1015.6
20260505184526 23 267 0.0 0.0 0.00 0.00 0.00 43 1015.6
20260505184426 23 133 0.0 0.0 0.00 0.00 0.00 44 1015.5
20260505184327 23 179 0.0 0.0 0.00 0.00 0.00 45 1015.5
20260505184223 23 170 0.0 0.0 0.00 0.00 0.00 47 1015.4
20260505184124 23 114 0.0 0.0 0.00 0.00 0.00 45 1015.4
20260505184024 23 136 0.0 0.0 0.00 0.00 0.00 46 1015.5
20260505183924 23 118 0.0 0.0 0.00 0.00 0.00 44 1015.5
20260505183825 23 221 0.0 0.0 0.00 0.00 0.00 46 1015.6
20260505183722 23 140 0.0 0.0 0.00 0.00 0.00 45 1015.6
20260505183621 23 184 0.0 0.0 0.00 0.00 0.00 45 1015.6
20260505183521 23 56 0.0 0.0 0.00 0.00 0.00 48 1015.6
20260505183422 23 229 0.0 0.0 0.00 0.00 0.00 45 1015.5
20260505183323 23 57 0.0 0.0 0.00 0.00 0.00 45 1015.6
20260505183221 23 162 0.0 0.0 0.00 0.00 0.00 46 1015.6
20260505183123 23 191 0.0 0.0 0.00 0.00 0.00 47 1015.6
20260505183023 23 139 0.0 0.0 0.00 0.00 0.00 49 1015.6
20260505182924 22 130 0.0 0.0 0.00 0.00 0.00 47 1015.7
20260505182823 22 149 0.0 0.0 0.00 0.00 0.00 46 1015.7
20260505182721 22 186 0.0 0.0 0.00 0.00 0.00 48 1015.7
20260505182622 22 146 0.0 0.0 0.00 0.00 0.00 49 1015.8
20260505182521 22 89 0.0 0.0 0.00 0.00 0.00 48 1015.7
20260505182418 22 166 0.0 0.0 0.00 0.00 0.00 46 1015.8
20260505182318 22 195 0.0 0.0 0.00 0.00 0.00 46 1015.9
20260505182217 22 215 0.0 0.0 0.00 0.00 0.00 46 1015.8
20260505182117 22 159 0.0 0.0 0.00 0.00 0.00 46 1015.8
20260505182018 22 138 0.0 0.0 0.00 0.00 0.00 45 1015.7
20260505181918 22 139 0.0 0.0 0.00 0.00 0.00 48 1015.8
20260505181818 22 116 0.0 0.0 0.00 0.00 0.00 46 1015.8
20260505181718 22 150 0.0 0.0 0.00 0.00 0.00 45 1015.8
20260505181614 23 161 0.0 0.0 0.00 0.00 0.00 46 1015.9
20260505181513 23 163 0.0 0.0 0.00 0.00 0.00 47 1015.9
20260505181413 23 150 0.0 0.0 0.00 0.00 0.00 46 1015.9
20260505181311 23 194 0.0 0.0 0.00 0.00 0.00 45 1016.0
20260505181213 23 221 0.0 0.0 0.00 0.00 0.00 45 1015.9
20260505181106 23 107 0.0 0.0 0.00 0.00 0.00 45 1016.0
20260505181006 23 164 0.0 0.0 0.00 0.00 0.00 44 1016.0
20260505180906 23 137 0.0 0.0 0.00 0.00 0.00 47 1016.0
20260505180806 23 141 0.0 0.0 0.00 0.00 0.00 46 1016.1
20260505180707 23 130 0.0 0.0 0.00 0.00 0.00 44 1016.1
20260505180600 23 245 0.0 0.0 0.00 0.00 0.00 45 1016.2
20260505180501 23 140 0.0 0.0 0.00 0.00 0.00 45 1016.2
20260505180359 23 71 0.0 0.0 0.00 0.00 0.00 44 1016.2
20260505180301 23 242 0.0 0.0 0.00 0.00 0.00 44 1016.2
20260505180159 23 173 0.0 0.0 0.00 0.00 0.00 43 1016.2
20260505180100 23 114 0.0 0.0 0.00 0.00 0.00 43 1016.1
20260505175959 23 148 0.0 0.0 0.00 0.00 0.00 44 1016.2
20260505175900 23 134 0.0 0.0 0.00 0.00 0.00 43 1016.2
20260505175801 23 155 0.0 0.0 0.00 0.00 0.00 42 1016.1
20260505175700 23 194 0.0 0.0 0.00 0.00 0.00 42 1016.2
20260505175559 23 169 0.0 0.0 0.00 0.00 0.00 43 1016.2
20260505175500 23 144 0.0 0.0 0.00 0.00 0.00 44 1016.2
20260505175400 23 273 0.0 0.0 0.00 0.00 0.00 43 1016.0
20260505175259 23 102 0.0 0.0 0.00 0.00 0.00 43 1016.1
20260505175200 23 160 0.0 0.0 0.00 0.00 0.00 46 1016.1
20260505175100 23 150 0.0 0.0 0.00 0.00 0.00 45 1016.2
20260505174959 23 159 0.0 0.0 0.00 0.00 0.00 43 1016.1
20260505174853 23 180 0.0 0.0 0.00 0.00 0.00 44 1016.2
20260505174753 23 151 0.0 0.0 0.00 0.00 0.00 42 1016.2
20260505174653 23 153 0.0 0.0 0.00 0.00 0.00 43 1016.1
20260505174552 23 154 0.0 0.0 0.00 0.00 0.00 43 1016.1
20260505174452 23 229 0.0 0.0 0.00 0.00 0.00 43 1016.2
20260505174347 23 244 0.0 0.0 0.00 0.00 0.00 44 1016.1
20260505174246 22 130 0.0 0.0 0.00 0.00 0.00 44 1016.1
20260505174147 22 125 0.0 0.0 0.00 0.00 0.00 46 1015.9
20260505174045 22 146 0.0 0.0 0.00 0.00 0.00 46 1016.0
20260505173947 22 152 0.0 0.0 0.00 0.00 0.00 44 1015.9
20260505173841 22 128 0.0 0.0 0.00 0.00 0.00 45 1015.9
20260505173739 22 173 0.0 0.0 0.00 0.00 0.00 44 1016.0
20260505173637 22 151 0.0 0.0 0.00 0.00 0.00 44 1016.0
20260505173538 22 157 0.0 0.0 0.00 0.00 0.00 44 1016.0
20260505173437 22 149 0.0 0.0 0.00 0.00 0.00 44 1016.0
20260505173337 22 136 0.0 0.0 0.00 0.00 0.00 45 1016.0
20260505173239 22 175 0.0 0.0 0.00 0.00 0.00 44 1016.0
20260505173135 22 241 0.0 0.0 0.00 0.00 0.00 44 1016.0
20260505173037 22 150 0.0 0.0 0.00 0.00 0.00 44 1016.0
20260505172936 22 156 0.0 0.0 0.00 0.00 0.00 44 1016.1
20260505172833 22 149 0.0 0.0 0.00 0.00 0.00 45 1016.0
20260505172734 22 134 0.0 0.0 0.00 0.00 0.00 44 1016.1
20260505172634 22 236 0.0 0.0 0.00 0.00 0.00 47 1016.0
20260505172534 22 140 0.0 0.0 0.00 0.00 0.00 43 1016.0
20260505172433 22 149 0.0 0.0 0.00 0.00 0.00 45 1015.8
20260505172334 22 143 0.0 0.0 0.00 0.00 0.00 45 1016.0
20260505172233 22 126 0.0 0.0 0.00 0.00 0.00 45 1015.9
20260505172134 22 148 0.0 0.0 0.00 0.00 0.00 45 1015.9
20260505172031 22 126 0.0 0.0 0.00 0.00 0.00 45 1015.9
20260505171932 22 141 0.0 0.0 0.00 0.00 0.00 44 1015.9
20260505171832 23 146 0.0 0.0 0.00 0.00 0.00 45 1015.9
20260505171733 23 134 0.0 0.0 0.00 0.00 0.00 47 1016.0
20260505171627 23 137 0.0 0.0 0.00 0.00 0.00 47 1016.0
20260505171526 23 176 0.0 0.0 0.00 0.00 0.00 47 1016.0
20260505171426 23 141 0.0 0.0 0.00 0.00 0.00 46 1016.0
20260505171327 22 115 0.0 0.0 0.00 0.00 0.00 49 1016.0
20260505171226 22 178 0.0 0.0 0.00 0.00 0.00 47 1016.1
20260505171122 22 97 0.0 0.0 0.00 0.00 0.00 51 1016.0
20260505171020 22 137 0.0 0.0 0.00 0.00 0.00 49 1016.0
20260505170920 22 167 0.0 0.0 0.00 0.00 0.00 48 1016.0
20260505170820 22 163 0.0 0.0 0.00 0.00 0.00 47 1016.0
20260505170720 22 154 0.0 0.0 0.00 0.00 0.00 47 1016.0
20260505170621 22 140 0.0 0.0 0.00 0.00 0.00 48 1016.1
20260505170519 22 157 0.0 0.0 0.00 0.00 0.00 49 1016.2
20260505170419 22 126 0.0 0.0 0.00 0.00 0.00 49 1016.2
20260505170319 22 228 0.0 0.0 0.00 0.00 0.00 48 1016.1
20260505170217 22 117 0.0 0.0 0.00 0.00 0.00 49 1016.1
20260505170118 22 147 0.0 0.0 0.00 0.00 0.00 49 1016.2
20260505170016 22 157 0.0 0.0 0.00 0.00 0.00 50 1016.2
20260505165913 22 144 0.0 0.0 0.00 0.00 0.00 48 1016.2
20260505165813 22 135 0.0 0.0 0.00 0.00 0.00 51 1016.2
20260505165713 22 196 0.0 0.0 0.00 0.00 0.00 48 1016.2
20260505165614 22 196 0.0 0.0 0.00 0.00 0.00 48 1016.2
20260505165513 22 192 0.0 0.0 0.00 0.00 0.00 49 1016.2
20260505165415 22 157 0.0 0.0 0.00 0.00 0.00 49 1016.2
20260505165313 22 159 0.0 0.0 0.00 0.00 0.00 48 1016.3
20260505165214 22 132 0.0 0.0 0.00 0.00 0.00 50 1016.3
20260505165113 22 124 0.0 0.0 0.00 0.00 0.00 49 1016.3
20260505165014 22 198 0.0 0.0 0.00 0.00 0.00 48 1016.3
20260505164903 22 298 0.0 0.0 0.00 0.00 0.00 49 1016.3
20260505164804 22 163 0.0 0.0 0.00 0.00 0.00 49 1016.3
20260505164705 22 160 0.0 0.0 0.00 0.00 0.00 49 1016.3
20260505164603 22 161 0.0 0.0 0.00 0.00 0.00 51 1016.3
20260505164504 22 150 0.0 0.0 0.00 0.00 0.00 52 1016.3
20260505164404 22 102 0.0 0.0 0.00 0.00 0.00 50 1016.4
20260505164304 22 121 0.0 0.0 0.00 0.00 0.00 51 1016.4
20260505164205 22 203 0.0 0.0 0.00 0.00 0.00 50 1016.5
20260505164104 22 152 0.0 0.0 0.00 0.00 0.00 51 1016.5
20260505164005 22 120 0.0 0.0 0.00 0.00 0.00 48 1016.5
20260505163904 22 144 0.0 0.0 0.00 0.00 0.00 50 1016.5
20260505163805 22 164 0.0 0.0 0.00 0.00 0.00 50 1016.5
20260505163605 22 194 0.0 0.0 0.00 0.00 0.00 53 1016.6
20260505163504 22 195 0.0 0.0 0.00 0.00 0.00 51 1016.6
20260505163403 22 326 0.0 0.0 0.00 0.00 0.00 52 1016.7
20260505163304 22 163 0.0 0.0 0.00 0.00 0.00 49 1016.6
20260505163201 22 140 0.0 0.0 0.00 0.00 0.00 49 1016.6
20260505163102 22 134 0.0 0.0 0.00 0.00 0.00 49 1016.7
20260505163002 22 140 0.0 0.0 0.00 0.00 0.00 50 1016.6
20260505162901 22 176 0.0 0.0 0.00 0.00 0.00 49 1016.7
20260505162801 22 141 0.0 0.0 0.00 0.00 0.00 52 1016.7
20260505162701 22 167 0.0 0.0 0.00 0.00 0.00 50 1016.6
20260505162601 22 171 0.0 0.0 0.00 0.00 0.00 52 1016.6
20260505162501 22 248 0.0 0.0 0.00 0.00 0.00 53 1016.7
20260505162401 22 165 0.0 0.0 0.00 0.00 0.00 52 1016.6
20260505162301 22 182 0.0 0.0 0.00 0.00 0.00 53 1016.6
20260505162201 22 146 0.0 0.0 0.00 0.00 0.00 51 1016.7
20260505162102 22 145 0.0 0.0 0.00 0.00 0.00 52 1016.7
20260505162001 22 142 0.0 0.0 0.00 0.00 0.00 51 1016.7
20260505161902 22 217 0.0 0.0 0.00 0.00 0.00 52 1016.7
20260505161801 22 156 0.0 0.0 0.00 0.00 0.00 51 1016.7
20260505161701 22 177 0.0 0.0 0.00 0.00 0.00 50 1016.7
20260505161602 22 139 0.0 0.0 0.00 0.00 0.00 50 1016.6
20260505161501 22 163 0.0 0.0 0.00 0.00 0.00 50 1016.7
20260505161401 22 184 0.0 0.0 0.00 0.00 0.00 51 1016.7
20260505161302 22 272 0.0 0.0 0.00 0.00 0.00 51 1016.6
20260505161202 22 138 0.0 0.0 0.00 0.00 0.00 51 1016.6
20260505161102 21 145 0.0 0.0 0.00 0.00 0.00 51 1016.6
20260505161000 21 138 0.0 0.0 0.00 0.00 0.00 52 1016.7
20260505160900 21 155 0.0 0.0 0.00 0.00 0.00 52 1016.6
20260505160800 21 184 0.0 0.0 0.00 0.00 0.00 52 1016.7
20260505160659 21 194 0.0 0.0 0.00 0.00 0.00 53 1016.7
20260505160559 21 172 0.0 0.0 0.00 0.00 0.00 53 1016.7
20260505160459 21 95 0.0 0.0 0.00 0.00 0.00 53 1016.9
20260505160401 21 44 0.0 0.0 0.00 0.00 0.00 52 1016.9
20260505160257 21 162 0.0 0.0 0.00 0.00 0.00 53 1016.9
20260505160158 21 162 0.0 0.0 0.00 0.00 0.00 53 1016.9
20260505153357 21 172 0.0 0.0 0.00 0.00 0.00 51 1016.7
20260505153258 21 154 0.0 0.0 0.00 0.00 0.00 53 1016.9
20260505153157 21 150 0.0 0.0 0.00 0.00 0.00 52 1016.7
20260505153059 21 148 0.0 0.0 0.00 0.00 0.00 51 1016.6
20260505152954 21 168 0.0 0.0 0.00 0.00 0.00 51 1016.7
20260505152853 21 224 0.0 0.0 0.00 0.00 0.00 52 1016.7
20260505152754 21 145 0.0 0.0 0.00 0.00 0.00 53 1016.7
20260505152654 21 123 0.0 0.0 0.00 0.00 0.00 53 1016.6
20260505152554 21 173 0.0 0.0 0.00 0.00 0.00 51 1016.7